GFSSGP_700_rhum_057.txt.gz
RH
49 46 44 44 42 40 33 24 21 33 30 27 30 30 31 30 38 43 42 43 42 36 33 34 34 35 35 36 37 33 30 30 30 29 29 28 29 24 12 8 8 8 8 7 7 7 7 9 9
52 47 47 47 46 43 29 20 17 27 33 28 28 28 27 29 31 45 45 45 43 35 34 34 34 34 36 36 38 35 32 31 32 32 30 28 31 32 31 23 11 8 8 9 9 9 9 10 9
48 50 49 55 52 38 26 18 20 33 35 31 34 31 28 26 29 40 47 46 40 36 34 35 35 34 37 38 39 37 34 33 34 35 34 30 26 31 33 33 32 30 24 12 8 8 9 10 10
42 50 52 55 41 25 20 18 18 35 35 34 36 32 28 25 26 31 40 46 45 39 36 36 36 34 39 40 39 39 37 35 34 34 36 35 32 26 26 30 28 25 27 30 29 26 20 18 14
31 43 50 51 37 24 21 21 24 28 37 34 34 30 31 31 26 29 32 44 45 41 37 37 37 35 40 42 39 41 38 40 36 35 37 39 38 35 29 26 27 24 19 16 17 22 25 26 26
31 38 50 51 31 26 22 22 24 30 39 36 38 35 33 33 30 43 40 44 45 43 39 39 38 38 43 43 41 42 39 40 40 38 40 39 40 40 38 34 28 25 23 21 20 19 18 16 17
37 35 40 35 30 27 23 24 24 38 38 37 42 40 34 40 42 43 44 42 45 46 41 40 40 41 45 45 42 43 43 40 41 40 40 41 41 39 40 39 36 33 30 27 24 22 22 24 25
42 39 39 36 30 24 24 26 24 28 36 36 40 40 34 31 44 48 52 46 38 46 43 41 42 43 46 46 45 44 44 42 42 43 42 41 42 41 38 36 39 39 37 34 32 30 27 25 24
38 44 41 33 29 24 22 25 26 28 38 36 34 38 37 33 28 31 45 46 38 44 48 44 44 46 47 46 46 45 46 45 44 44 44 43 43 42 41 40 38 37 36 35 35 35 34 32 30
36 37 33 24 24 26 25 23 25 36 41 36 34 38 38 36 32 30 34 43 42 37 45 52 51 51 46 45 45 45 46 46 46 46 45 45 44 44 43 42 42 42 40 39 38 37 36 34 34
35 33 25 22 22 22 22 19 21 26 37 41 41 38 38 37 34 34 31 33 39 44 42 44 55 55 47 44 44 44 45 46 46 46 46 46 45 45 45 44 44 46 46 45 44 43 40 38 35
36 34 28 19 20 24 22 20 21 23 29 39 42 41 38 38 38 38 38 36 42 45 44 40 44 49 50 50 49 46 45 45 46 46 46 46 46 45 45 46 46 46 47 48 49 49 48 45 42
44 42 34 24 20 22 25 26 22 18 19 39 39 43 41 39 38 39 42 41 41 41 43 45 43 38 40 45 47 48 50 49 50 50 50 48 47 47 46 46 48 48 48 50 51 54 53 50 48
56 45 43 32 27 26 25 23 22 13 17 41 37 45 44 42 40 40 41 36 36 37 38 41 44 43 39 38 39 41 44 43 42 44 46 48 48 48 48 49 50 51 50 51 51 53 54 53 52
64 73 48 41 37 31 28 21 18 18 16 26 43 43 46 45 43 41 40 40 40 38 38 40 41 44 41 37 36 37 41 44 47 47 48 49 49 50 51 52 52 51 50 50 51 51 52 50 50
89 71 82 49 38 37 36 19 25 32 20 18 26 38 47 48 44 43 41 39 42 43 42 37 36 39 37 37 41 41 43 42 46 49 49 50 51 52 52 52 52 52 53 53 51 50 50 49 49
98 89 70 56 62 57 56 49 25 23 18 23 22 27 42 44 44 43 44 45 45 47 49 45 39 39 41 44 48 51 52 46 45 50 51 52 53 52 53 54 54 51 53 54 53 50 50 50 56
95 95 74 65 56 61 62 67 39 39 34 34 19 18 18 21 22 24 30 43 53 56 59 59 53 48 47 44 49 53 50 51 47 46 49 53 52 51 50 55 52 48 50 53 54 60 57 61 68
86 83 77 68 69 70 65 64 38 30 35 31 22 18 18 17 15 18 19 21 33 45 46 63 68 63 60 53 44 48 49 51 52 52 50 53 56 58 56 55 55 52 52 59 60 62 66 74 82
98 94 81 67 68 72 62 57 35 32 33 32 31 28 27 27 26 27 28 30 26 18 23 43 65 70 68 66 60 53 55 57 66 67 64 62 58 60 60 61 61 60 58 59 62 68 71 78 90
97 92 87 79 70 70 66 57 38 28 29 21 14 13 14 15 13 16 20 25 29 22 18 25 40 58 75 75 76 78 69 62 62 57 60 58 57 57 62 65 72 64 61 60 71 72 70 76 88
90 84 84 82 77 72 59 62 31 19 14 16 24 22 16 14 14 13 10 12 19 25 28 30 28 29 34 51 66 76 81 68 59 68 70 68 65 63 66 69 73 75 70 71 75 79 73 75 82
84 81 83 79 79 74 60 58 21 14 17 19 21 26 20 17 17 17 16 15 14 13 15 22 28 35 42 41 44 43 67 80 79 75 87 88 82 70 72 72 73 77 76 76 74 74 75 80 88
83 83 80 76 73 78 57 52 16 26 28 30 30 28 23 19 16 16 16 15 16 16 19 22 20 23 33 38 45 45 53 64 70 77 84 92 93 90 75 69 75 79 91 84 77 79 75 79 86
95 88 77 77 90 76 71 68 22 29 27 24 25 25 23 21 20 19 18 18 18 19 20 25 20 23 31 32 48 56 57 58 60 64 72 77 88 89 86 77 72 76 87 86 80 75 76 77 92
97 87 58 66 94 84 77 72 36 33 25 29 25 28 30 29 27 29 32 33 33 33 33 34 31 24 27 27 29 38 55 62 65 66 70 72 84 93 93 84 77 77 87 91 85 79 80 89 90
89 93 78 76 92 94 62 46 35 31 31 32 32 33 32 31 32 34 33 34 34 35 36 36 36 36 36 33 35 38 38 33 48 49 59 64 68 82 85 83 79 78 80 86 91 81 87 99 91
78 73 77 71 77 75 54 48 28 38 37 37 41 44 43 38 36 36 36 36 36 37 37 37 38 38 38 37 38 42 38 33 30 35 46 52 58 64 76 80 82 78 83 96 95 90 95 99 84
92 90 79 73 68 84 89 33 39 42 43 48 52 53 51 52 52 50 50 54 52 51 48 46 47 46 45 46 48 46 38 33 28 28 28 47 56 56 68 73 82 85 90 96 94 97 100 94 100
96 80 78 68 80 91 97 45 39 44 58 77 83 83 83 86 82 67 63 66 66 65 65 63 72 68 64 58 54 46 36 33 34 33 31 44 61 60 74 85 84 83 94 98 96 100 88 99 100

GFSSGP_700_rhum_060.txt.gz
RH
50 48 46 43 44 42 37 28 23 35 36 33 35 37 34 31 39 43 41 37 40 36 33 34 34 35 34 37 36 33 31 32 32 31 29 29 30 28 19 10 8 8 8 8 8 8 8 9 10
54 52 52 51 50 44 35 25 20 34 34 33 33 31 30 30 32 40 38 41 42 38 33 34 34 36 36 38 37 35 34 33 34 34 32 28 27 31 32 30 25 14 9 9 9 10 16 10 9
52 53 55 59 56 42 30 21 22 24 34 34 35 33 31 28 28 39 43 47 46 38 34 34 34 35 37 38 40 35 36 34 34 34 35 33 28 25 29 31 31 31 30 26 16 10 9 9 10
49 52 56 58 48 30 26 22 21 25 36 37 38 36 34 28 25 31 40 47 44 36 34 34 34 36 39 39 41 38 39 38 35 35 36 37 35 30 26 27 28 25 22 24 28 28 24 20 19
42 49 54 55 40 29 25 25 25 28 36 39 37 34 30 30 31 28 32 42 45 43 36 36 36 34 40 41 41 42 39 41 40 36 38 39 39 39 36 30 25 24 22 18 16 16 19 20 22
27 39 54 57 32 26 26 26 25 23 26 38 38 33 34 34 33 38 45 44 43 44 38 37 38 36 42 43 41 43 41 40 42 40 39 39 39 37 39 38 34 29 24 22 20 20 21 21 22
29 28 38 35 27 26 24 26 26 24 23 37 39 38 38 34 37 37 44 45 43 44 42 38 39 39 42 44 43 43 42 42 42 42 42 41 42 42 37 36 38 37 34 30 28 25 24 22 23
42 34 34 31 28 27 26 28 27 27 26 38 39 40 36 35 33 42 48 49 44 45 42 42 40 41 43 45 45 44 44 44 43 43 43 43 43 43 42 40 38 37 36 35 34 32 32 30 28
49 45 40 35 33 32 29 29 28 28 27 33 38 39 38 35 35 31 39 46 41 38 43 44 42 42 43 46 46 46 45 45 46 45 45 44 44 44 42 42 41 41 38 36 35 35 34 33 32
51 44 40 35 34 32 31 32 28 27 24 29 38 35 36 36 37 35 33 28 44 39 46 50 45 45 47 49 47 46 46 46 46 46 46 46 46 45 45 44 43 44 45 44 43 42 41 38 37
45 40 37 35 29 29 30 28 27 27 26 29 39 36 34 39 38 37 36 32 38 46 41 37 44 52 50 52 46 47 46 46 47 47 47 47 46 46 46 46 45 45 46 47 47 48 48 47 45
41 42 42 33 29 28 26 26 24 23 20 31 39 40 37 38 39 44 40 36 36 39 43 42 41 45 54 55 48 46 45 46 47 47 47 48 48 47 46 47 47 47 47 48 48 50 50 51 48
46 42 40 30 28 30 26 22 22 17 16 21 36 42 42 42 41 44 44 39 37 38 44 47 47 44 46 49 50 52 51 50 50 50 51 50 50 49 48 48 48 48 49 50 50 51 53 56 53
51 44 42 29 24 24 25 22 19 11 12 16 26 41 47 48 48 43 41 39 38 40 38 40 39 40 45 43 39 44 46 47 48 48 47 47 50 50 50 49 50 50 51 52 52 52 54 55 53
70 69 46 34 28 31 28 21 13 11 12 13 16 34 52 60 62 45 43 42 40 38 38 37 36 37 41 43 46 47 43 46 44 44 46 46 48 50 50 51 53 54 54 54 53 52 53 52 50
62 73 73 37 31 33 36 24 23 17 17 12 12 15 38 54 53 49 45 44 42 41 40 39 40 42 41 42 43 45 47 46 42 44 48 48 51 52 52 52 54 54 53 53 55 54 54 52 49
99 83 72 67 39 38 35 35 32 26 26 20 15 14 18 29 46 48 46 45 45 44 43 42 42 39 42 42 37 42 47 49 49 49 49 49 53 52 54 55 56 55 55 56 55 52 54 51 54
94 96 70 46 35 47 47 54 36 32 29 21 15 11 12 14 21 36 44 47 49 49 48 48 46 46 44 45 42 44 52 50 53 57 50 52 53 55 55 55 56 56 56 53 52 54 56 59 61
76 77 72 56 62 63 60 64 38 30 30 24 19 14 14 12 13 16 26 36 40 48 54 54 56 54 53 50 43 40 37 42 50 53 55 53 53 58 61 60 59 58 55 57 58 57 60 66 67
93 92 85 78 75 74 65 61 44 25 27 28 31 27 25 25 21 19 21 21 22 24 28 40 54 58 63 60 52 52 52 51 51 54 62 59 59 63 64 64 66 67 62 61 60 60 68 72 71
99 92 84 82 80 75 66 55 34 27 33 32 30 30 33 26 22 23 24 28 27 24 27 26 28 45 55 57 57 66 73 70 57 48 52 49 65 64 71 68 69 72 69 68 69 69 77 84 81
99 88 85 81 87 78 65 67 33 28 25 19 30 28 25 22 16 13 13 14 21 26 30 34 31 25 26 29 42 60 70 73 73 70 64 66 64 59 63 61 71 73 72 73 73 76 78 88 92
91 86 84 81 82 77 69 58 28 19 25 24 25 26 31 23 21 18 18 18 16 13 16 25 36 36 32 26 29 42 61 73 75 71 69 76 74 73 80 74 73 76 76 73 76 82 82 86 94
85 85 82 76 69 75 63 54 21 35 36 34 34 32 30 25 25 24 22 20 19 18 18 18 20 26 32 40 42 41 40 41 44 45 50 56 75 75 74 75 76 76 78 73 79 87 87 86 94
95 87 74 68 84 77 73 68 24 37 36 35 32 29 26 24 23 22 20 18 17 17 17 18 21 23 26 32 36 43 50 56 59 60 57 53 63 75 77 80 89 85 81 79 80 88 93 88 92
98 91 62 61 88 72 75 70 40 34 35 30 30 27 27 28 27 24 24 29 31 33 34 33 30 31 26 23 29 37 40 45 58 64 65 65 65 68 72 83 88 80 85 80 78 84 94 99 99
90 92 77 68 89 92 62 48 45 37 34 33 37 36 34 34 33 32 32 33 34 35 35 36 37 38 38 36 34 32 34 34 35 38 40 51 62 65 68 68 77 98 97 85 82 85 91 100 99
74 79 79 66 81 71 49 40 31 44 41 45 42 39 38 38 39 40 42 43 43 41 40 40 39 40 39 39 39 39 39 40 41 43 43 38 36 53 57 65 69 76 84 87 88 90 89 96 100
88 85 72 63 62 78 78 31 34 46 55 46 50 52 50 47 49 49 47 48 46 46 45 46 48 48 46 42 43 43 42 44 48 49 45 35 33 38 51 60 67 71 77 85 93 94 90 100 100
93 77 70 62 80 80 91 42 41 50 53 54 69 76 77 77 73 70 61 56 55 54 51 53 57 58 59 57 58 57 55 51 49 51 46 37 33 32 45 60 66 66 84 85 91 92 94 100 100

GFSSGP_700_rhum_063.txt.gz
RH
50 47 45 44 44 42 36 28 24 34 34 31 38 34 33 33 35 37 36 38 41 35 34 33 35 34 32 37 35 33 30 30 32 32 30 27 28 30 29 24 13 9 9 9 9 9 8 9 9
58 54 52 51 49 46 35 26 22 37 36 36 35 40 36 36 38 39 39 36 42 36 33 34 35 36 37 38 38 36 34 33 33 33 33 30 28 31 32 32 31 28 18 9 9 17 11 10 9
59 61 58 59 56 48 36 24 24 30 29 37 35 35 33 30 33 41 36 41 43 37 33 34 34 36 38 38 39 38 37 35 34 34 36 35 31 28 28 29 28 28 29 28 25 16 11 9 10
58 63 63 63 53 39 34 29 24 24 28 38 36 34 32 31 27 34 41 46 45 38 34 34 33 36 38 39 41 39 40 39 38 34 37 38 38 35 31 27 25 24 21 19 22 26 27 25 20
55 62 64 63 52 41 33 32 25 28 34 39 39 38 33 30 31 30 36 48 47 42 34 34 34 36 39 39 40 41 41 40 41 39 37 37 36 38 38 35 29 24 22 20 18 16 16 18 18
43 56 61 64 43 36 33 30 29 26 33 32 39 36 33 32 33 32 37 40 47 44 36 35 36 34 40 41 41 42 42 40 42 41 40 42 42 39 36 37 36 32 28 24 22 21 21 22 23
27 38 53 46 30 31 26 27 27 26 25 25 34 37 32 35 35 36 41 44 41 44 43 38 37 36 39 43 42 42 43 41 42 43 42 42 43 43 42 37 37 38 36 33 31 29 27 25 24
32 32 50 36 27 26 23 25 25 27 26 25 29 38 33 37 34 38 40 40 44 42 44 39 38 39 39 43 43 43 44 42 43 43 44 43 44 43 43 43 40 38 34 32 31 31 31 31 30
50 44 40 27 24 24 23 25 27 26 27 25 26 39 37 38 33 33 41 49 47 42 42 42 41 40 40 44 45 44 44 44 44 45 45 45 44 45 44 43 44 42 42 42 41 40 38 36 35
58 48 40 34 30 29 29 31 31 29 27 26 26 36 39 37 33 33 33 34 44 47 40 44 46 42 42 42 45 46 45 46 46 46 46 46 46 46 46 45 44 44 45 45 46 47 47 48 46
56 48 45 43 40 38 39 39 37 31 26 25 28 30 38 38 36 32 34 38 37 38 45 42 49 49 46 47 50 50 47 46 46 47 47 47 47 47 47 46 46 45 46 46 47 48 49 50 49
48 50 47 43 41 39 36 34 38 30 25 29 34 37 37 35 35 38 39 38 40 38 48 45 42 38 49 55 55 50 48 47 47 47 48 48 48 48 48 47 47 47 47 47 48 48 50 51 52
59 56 53 39 38 34 32 30 40 24 22 25 27 36 37 36 37 41 40 39 41 37 34 37 44 44 46 54 56 53 48 47 48 47 48 48 49 50 50 49 48 48 49 49 50 50 51 52 56
73 64 60 44 33 33 32 28 30 19 20 18 19 26 37 38 38 41 40 40 41 42 35 36 40 41 41 42 45 47 50 54 52 52 52 52 52 52 52 51 50 50 50 51 52 52 53 53 53
72 72 57 49 32 35 35 28 19 20 18 14 15 18 31 39 41 42 44 40 40 41 40 40 41 41 38 38 42 42 41 46 48 48 48 47 47 49 52 52 52 52 53 54 55 56 53 53 53
74 94 76 40 30 36 36 25 28 22 16 12 12 13 18 40 43 43 44 42 42 43 41 40 40 38 38 35 39 47 49 45 44 44 46 44 46 50 52 52 53 54 56 56 57 54 55 55 54
89 84 80 64 41 41 35 33 26 25 26 18 13 11 12 15 40 41 40 41 45 44 44 43 42 42 40 42 38 42 49 51 48 48 46 44 49 52 52 54 56 58 56 56 56 56 56 56 54
87 93 69 56 48 40 36 32 30 31 25 21 18 15 12 11 13 33 50 52 51 50 47 44 43 44 42 44 46 42 42 44 40 45 48 51 52 53 54 56 57 58 57 56 58 58 57 57 55
75 64 60 35 46 46 50 59 43 36 21 16 15 15 13 13 14 14 21 43 48 48 48 47 45 41 46 45 43 41 40 38 40 49 58 58 60 55 59 62 60 58 58 58 63 62 58 59 60
82 69 74 73 64 57 65 63 42 34 22 21 22 22 21 16 12 12 13 15 21 29 35 42 49 52 52 52 53 52 50 43 41 46 51 53 62 61 60 58 62 60 61 63 63 65 64 64 66
99 82 84 81 80 78 72 62 41 36 31 28 27 26 23 20 18 18 18 18 17 16 16 23 30 37 41 46 53 61 68 69 42 35 41 47 50 58 67 67 67 65 66 68 66 68 68 72 70
99 99 91 86 85 78 65 62 37 38 33 31 24 23 25 25 24 23 20 22 24 25 23 23 24 21 21 24 28 40 55 68 70 68 54 61 60 67 65 66 71 80 78 73 72 73 76 78 77
98 97 96 82 80 78 70 63 41 31 32 28 27 28 34 30 23 21 21 19 18 17 18 20 25 30 30 30 30 30 34 45 46 54 74 76 78 78 78 71 72 76 74 77 75 75 77 79 83
96 96 87 82 75 73 65 58 32 37 35 35 35 33 31 30 27 27 27 25 22 20 19 17 17 19 26 31 33 34 36 36 37 40 49 61 64 64 67 71 69 66 83 79 74 76 83 82 86
95 84 75 72 79 66 68 66 37 45 43 40 36 34 32 29 28 29 28 26 24 21 19 19 18 18 19 22 30 39 41 48 53 56 55 54 55 54 57 60 62 67 68 80 84 83 81 80 86
96 85 69 58 71 62 73 68 42 42 40 40 38 36 32 28 28 28 26 26 27 30 31 31 31 32 27 23 24 28 35 39 43 48 53 57 63 62 62 63 68 74 78 80 96 99 87 84 87
98 94 76 62 81 84 60 53 53 43 43 49 46 40 36 34 33 34 34 34 34 35 36 36 36 35 35 36 37 32 25 29 36 39 39 41 50 59 63 63 64 66 74 79 88 99 89 92 92
82 79 74 64 75 65 48 41 44 54 65 61 54 48 44 43 42 40 39 39 39 38 39 40 41 40 38 38 38 39 39 39 38 38 38 39 39 40 40 41 53 62 65 63 75 81 100 96 95
85 81 68 59 57 61 56 30 34 58 61 54 53 51 50 49 50 48 46 45 43 39 36 34 34 38 42 45 48 49 46 42 42 42 42 42 42 44 46 44 37 52 62 70 73 79 88 99 97
87 74 63 56 73 70 72 40 39 59 52 49 50 52 65 58 57 64 62 56 47 42 42 41 41 40 43 50 53 56 57 58 58 53 51 50 48 49 49 46 35 43 58 70 77 83 88 98 94

GFSSGP_700_rhum_069.txt.gz
RH
54 49 42 40 55 46 40 35 33 33 35 35 31 31 30 31 30 44 43 38 39 32 32 32 34 30 32 33 36 32 29 29 30 30 29 27 27 28 30 29 28 22 13 10 10 9 9 8 6
61 55 50 58 53 41 36 35 37 32 36 37 22 23 25 33 46 46 38 32 36 36 32 32 34 32 35 35 35 35 33 31 30 30 31 30 27 26 27 28 28 28 26 24 16 11 10 9 9
81 63 73 65 57 40 35 31 34 35 39 33 36 34 42 42 40 41 38 37 32 38 32 32 34 35 37 38 36 34 32 33 32 31 33 34 33 30 26 25 24 24 24 25 30 14 10 10 10
94 77 79 66 50 47 37 32 35 32 37 34 42 40 48 47 42 43 37 40 42 39 32 33 34 36 38 39 39 38 36 33 36 33 35 36 36 36 34 29 24 22 20 18 19 23 24 24 23
91 97 79 65 56 46 41 36 40 34 35 38 36 38 45 34 38 43 34 40 42 38 33 33 34 36 39 39 38 40 39 38 38 35 36 35 33 32 36 36 33 28 23 20 18 17 17 17 18
73 84 69 62 53 50 44 42 43 35 37 38 34 38 43 30 28 36 46 48 46 42 35 32 33 35 39 40 40 40 41 39 41 39 40 42 42 39 33 35 36 35 32 28 24 22 22 22 23
65 78 64 48 45 46 46 47 45 39 36 39 37 37 44 34 29 28 38 44 48 46 39 34 32 33 36 40 40 41 42 42 40 42 41 42 43 43 43 38 36 35 33 32 31 30 29 27 26
57 74 65 54 43 42 44 46 51 42 35 35 39 34 40 44 31 29 28 30 40 47 44 37 34 32 36 38 40 41 42 43 41 42 43 43 42 44 44 44 43 39 38 40 39 36 34 32 31
74 68 58 52 47 43 42 49 53 49 42 38 37 34 45 42 35 31 29 28 26 42 46 38 36 33 33 37 40 41 42 43 43 42 43 44 44 44 44 44 44 44 44 43 41 43 44 45 45
79 67 50 51 50 46 50 50 53 46 34 37 34 33 30 37 37 35 34 33 29 42 45 44 43 38 34 35 39 41 41 43 44 44 43 44 44 43 45 45 45 44 44 44 45 45 44 45 47
59 67 58 43 43 51 55 54 46 44 38 33 36 37 23 26 37 35 32 34 41 37 41 43 42 45 42 38 37 40 42 42 43 45 45 44 46 46 45 46 46 46 45 45 45 46 47 48 48
82 54 64 56 54 49 51 46 43 46 38 40 38 41 27 22 32 38 34 33 43 48 49 48 43 43 47 44 40 39 41 43 44 44 45 46 46 46 47 47 47 47 47 47 46 46 47 48 49
99 77 80 76 82 58 55 48 49 51 50 47 36 29 27 24 23 38 37 34 36 36 40 44 45 43 46 50 46 44 44 48 50 49 46 46 46 47 47 48 47 47 48 48 48 48 48 49 50
99 95 94 89 85 66 58 64 66 52 58 46 36 30 25 24 24 31 39 38 35 33 32 34 33 42 44 44 44 50 54 55 56 52 48 47 47 47 48 48 48 49 49 50 49 49 50 50 52
95 98 94 91 84 77 65 65 44 52 48 53 34 29 26 26 26 30 38 39 40 39 37 36 35 43 44 40 38 38 40 49 56 55 52 49 48 48 48 48 50 52 51 50 49 50 50 52 53
95 92 89 96 91 84 60 40 52 45 40 35 45 44 26 25 27 31 37 38 36 38 39 39 37 37 35 34 38 42 44 43 42 47 49 53 55 56 55 54 53 52 50 48 46 50 51 52 54
97 92 76 68 81 84 52 42 43 46 48 31 42 45 36 23 22 25 36 38 38 38 39 39 36 35 37 35 36 42 44 39 35 34 37 45 48 54 55 55 52 50 46 45 48 51 52 54 56
81 78 59 61 78 79 70 55 58 59 45 26 47 48 41 18 16 17 20 29 38 40 40 40 39 39 39 38 36 37 40 41 38 38 37 40 45 49 52 53 49 46 45 47 50 54 54 57 58
57 59 53 55 66 76 67 60 62 62 36 27 24 39 46 17 14 12 12 15 18 24 33 36 40 40 43 44 39 40 38 44 43 42 42 42 42 48 53 54 54 52 53 53 55 56 59 61 60
78 53 51 58 65 66 66 63 60 68 63 29 22 39 43 39 20 12 9 9 10 10 14 25 37 43 47 48 44 43 44 44 45 44 40 43 40 41 48 52 56 65 63 61 56 58 59 61 61
90 64 53 60 76 85 67 62 64 66 51 32 19 15 15 14 13 12 12 10 10 9 10 11 15 27 38 45 49 43 45 45 40 38 36 39 45 43 42 51 56 70 72 73 69 62 62 63 64
92 64 56 62 76 54 63 31 45 52 38 22 21 20 17 16 14 11 10 11 11 12 12 12 13 13 16 22 31 47 38 40 40 37 40 44 46 50 55 55 61 69 82 73 74 76 74 74 71
99 86 71 75 66 67 74 58 48 50 52 45 45 34 30 27 24 20 17 16 17 18 17 17 16 15 15 15 17 22 30 27 22 28 33 38 36 37 60 60 66 68 70 70 79 75 71 71 78
92 95 90 88 82 81 56 52 50 51 54 62 50 37 32 29 28 27 26 25 24 23 22 20 19 20 23 26 27 28 30 32 33 35 34 34 35 34 40 66 72 82 76 78 67 75 79 72 71
99 98 98 98 94 58 61 62 42 45 55 57 62 43 38 36 35 33 30 30 29 27 24 22 21 20 19 19 19 20 24 32 32 38 43 46 43 39 34 38 55 69 76 74 72 71 74 76 80
99 98 97 72 62 47 68 58 47 50 44 65 46 41 41 39 36 34 34 33 31 28 26 23 20 18 16 16 16 16 16 18 22 29 38 45 49 54 51 51 52 52 55 59 60 60 63 64 65
99 97 73 61 56 43 44 47 52 48 49 45 45 42 39 37 36 34 32 31 29 28 25 24 24 26 27 28 29 30 31 31 28 26 27 30 35 39 42 45 47 53 58 61 64 64 68 68 70
98 96 76 68 61 47 35 35 38 49 49 47 44 42 39 38 38 38 39 37 36 36 35 35 36 36 37 37 37 38 39 38 37 36 36 36 36 36 35 39 40 41 46 54 60 67 69 69 70
88 90 72 67 56 42 32 26 44 42 63 61 51 52 54 52 52 53 50 47 46 44 42 41 40 39 39 36 35 37 38 43 43 42 40 40 41 41 42 43 43 43 42 41 42 48 56 63 66
92 82 70 73 70 60 66 42 55 65 75 65 62 56 53 53 53 52 52 50 47 47 44 41 38 37 36 35 35 31 31 33 41 45 48 52 55 56 56 54 51 49 48 47 44 42 42 41 42

GFSSGP_700_rhum_072.txt.gz
RH
60 59 46 39 51 52 49 40 33 32 30 30 30 30 29 26 31 40 47 43 35 32 31 32 33 32 32 32 34 31 28 28 29 29 28 27 26 26 27 28 28 26 23 10 9 9 8 6 6
72 70 57 54 65 51 42 40 36 33 34 33 30 25 27 36 37 51 44 42 37 35 31 32 33 34 35 34 32 33 32 30 29 31 31 30 28 26 25 25 26 26 26 27 12 10 10 9 9
64 88 68 78 68 54 41 34 35 35 35 35 34 27 29 46 52 39 42 36 37 37 32 31 34 35 36 36 34 30 31 32 31 31 33 34 34 32 28 24 22 22 21 21 25 20 13 10 9
73 90 85 85 60 55 42 35 31 33 33 32 39 36 46 56 45 36 42 38 32 36 34 32 34 36 37 38 36 36 33 30 34 32 32 32 33 35 35 32 27 22 20 19 18 19 23 25 25
97 96 98 77 74 53 43 36 36 33 35 33 28 40 44 44 42 44 39 38 36 33 34 32 34 37 38 39 39 39 38 33 35 34 36 34 30 28 32 35 34 32 27 22 19 18 17 16 17
94 100 97 99 68 59 47 39 39 36 33 36 32 38 45 42 39 44 38 37 42 40 35 33 33 36 38 39 40 40 41 39 36 40 36 40 41 37 32 32 35 35 34 31 29 26 24 22 22
77 93 98 79 70 59 51 45 41 36 33 37 36 36 45 40 30 36 44 47 43 41 35 33 33 34 38 40 40 41 41 42 40 38 42 40 42 43 42 40 35 36 35 32 31 30 29 28 28
58 98 94 81 74 57 48 45 46 43 36 35 37 35 67 43 31 28 37 44 47 46 43 35 32 32 35 39 40 41 42 43 42 42 41 43 43 43 44 44 43 42 38 38 41 42 41 39 38
66 98 94 78 70 52 44 45 45 46 42 35 35 35 53 45 34 30 29 32 35 46 47 41 36 33 32 36 38 41 42 43 44 43 42 44 43 44 44 44 45 44 44 44 44 42 40 43 46
92 82 72 59 62 55 45 52 54 50 46 40 40 37 36 47 40 34 30 28 29 29 44 46 39 35 32 33 37 39 41 43 44 44 44 43 44 44 42 42 44 46 45 45 45 46 46 46 46
94 65 38 41 55 51 56 59 53 52 49 41 40 37 34 38 40 36 41 31 30 32 34 38 44 43 39 36 34 37 40 41 43 44 44 44 43 45 46 44 43 43 46 47 46 46 46 47 48
83 58 63 52 58 49 56 55 50 45 44 38 36 35 35 29 30 38 38 33 29 30 30 39 38 38 42 45 41 37 38 41 42 43 44 45 46 45 45 46 47 45 44 45 48 48 48 48 48
95 77 74 60 82 56 51 50 53 48 42 44 37 35 41 34 27 30 38 34 32 32 35 37 41 40 40 39 46 44 41 40 41 43 45 45 46 46 46 46 47 47 46 44 45 48 49 49 49
91 92 83 68 89 70 61 55 49 37 50 48 43 41 38 35 30 22 36 37 37 38 36 45 46 44 44 40 41 49 47 44 44 47 50 51 50 47 47 47 46 48 47 48 47 45 44 49 50
88 90 83 86 84 84 65 58 43 39 53 56 48 42 37 34 28 26 22 37 41 42 38 35 34 34 36 37 43 45 46 46 52 54 57 56 53 50 48 49 48 48 49 51 52 50 45 42 49
97 97 98 94 77 89 72 53 54 49 54 56 56 44 37 32 29 25 25 23 38 41 41 38 37 33 33 33 43 41 34 37 39 44 46 51 52 53 55 55 54 54 54 55 54 51 45 43 47
84 96 85 88 78 86 81 55 56 53 47 47 45 44 49 42 28 24 23 27 32 40 44 45 40 37 37 38 38 35 36 38 44 43 39 36 34 36 45 49 55 57 56 56 54 51 49 46 49
76 89 75 68 76 77 69 57 64 58 50 43 36 36 38 43 33 22 23 26 33 37 39 44 44 40 41 40 42 40 36 35 40 44 42 38 36 35 36 42 50 57 56 51 50 50 52 53 56
92 79 71 65 60 74 80 73 53 58 48 43 33 40 47 39 32 24 19 21 26 35 38 40 42 42 41 38 40 42 41 42 40 41 42 43 43 40 43 43 42 49 54 54 54 54 57 59 61
88 82 75 57 64 74 75 75 71 57 50 46 34 25 38 48 40 33 20 16 16 19 24 32 38 39 41 44 41 42 47 48 51 50 43 43 44 47 45 43 42 45 50 55 54 59 63 64 65
92 80 73 56 84 76 66 67 67 58 57 56 32 23 20 26 32 31 22 14 12 11 11 12 16 22 30 40 54 46 44 47 48 51 52 51 50 48 44 48 49 52 56 56 60 70 73 76 71
80 64 77 63 73 71 62 57 42 55 57 51 34 17 16 18 21 20 17 14 12 12 11 10 9 10 12 15 21 35 32 33 32 34 39 42 42 47 53 49 48 53 55 70 76 76 77 78 77
96 75 83 95 72 62 67 61 38 42 56 46 29 29 22 16 15 14 14 13 12 11 12 13 13 13 13 13 14 14 18 19 19 18 17 20 26 28 31 49 59 56 61 63 61 73 70 70 76
96 82 95 98 75 85 66 59 52 51 50 48 44 35 28 26 22 23 21 19 19 18 18 18 19 20 20 19 19 20 21 22 26 25 24 28 34 36 33 32 35 45 55 61 65 71 80 84 75
98 99 99 98 98 85 58 64 43 45 47 47 46 44 40 36 32 30 29 27 27 26 24 23 22 21 19 18 19 21 24 27 30 32 33 36 37 38 42 43 40 41 43 54 70 82 86 85 84
88 94 97 89 90 68 61 62 49 47 48 55 61 56 43 38 35 34 34 33 32 29 27 25 23 21 19 18 17 16 16 16 16 18 21 25 30 35 39 42 39 39 42 48 52 57 60 64 70
98 99 91 76 51 63 59 55 55 47 48 51 51 43 44 43 40 38 36 33 30 28 26 23 21 19 18 18 18 21 23 25 28 28 27 26 25 26 25 27 30 32 36 45 52 60 64 67 70
98 99 98 83 82 71 48 46 44 48 53 47 47 42 43 41 38 35 33 31 28 27 26 27 29 29 30 31 32 34 34 35 36 36 37 37 37 36 36 36 37 38 38 38 41 44 47 52 58
97 98 90 82 59 80 65 41 42 36 40 44 44 46 41 39 38 41 44 46 47 45 43 41 40 39 39 39 38 38 37 35 33 38 40 42 41 42 41 42 42 43 44 45 45 45 45 45 44
97 98 81 71 72 53 58 52 54 46 50 60 58 46 50 52 52 50 47 44 44 47 44 43 43 40 39 36 35 36 33 33 34 35 40 40 42 42 45 44 49 54 58 61 61 60 56 52 51

GFSSGP_700_rhum_075.txt.gz
RH
70 58 46 42 43 45 39 29 38 32 30 25 23 23 22 25 30 31 38 43 33 33 32 34 31 31 34 31 31 29 26 26 27 29 28 26 25 25 26 26 26 26 23 10 9 8 7 6 6
71 60 64 53 50 64 41 27 36 35 32 29 26 24 26 33 31 40 40 42 35 33 31 33 31 33 37 35 28 30 31 29 28 30 31 30 28 26 24 23 23 23 24 23 13 10 9 9 9
70 61 70 65 64 53 50 29 38 34 33 31 28 24 30 35 36 42 42 43 38 35 31 32 32 35 36 38 36 29 26 30 31 31 33 33 34 33 30 26 23 21 20 21 24 20 14 11 10
79 72 64 84 77 42 38 35 39 38 35 33 31 28 33 31 36 43 45 36 40 35 31 31 34 36 37 37 38 39 32 23 29 30 29 28 30 33 34 33 30 26 21 19 18 18 20 22 25
77 81 73 74 71 46 32 41 42 36 34 33 32 44 43 48 46 35 36 38 34 38 32 31 34 36 38 38 38 39 39 34 26 30 31 31 29 26 30 34 35 33 32 29 24 20 19 18 18
89 80 76 70 63 49 34 44 48 36 34 33 27 42 44 47 45 41 41 40 36 36 35 32 34 37 38 39 39 40 40 40 36 31 35 32 36 35 33 32 34 34 33 32 31 29 28 26 25
88 90 81 57 53 51 48 55 54 40 36 34 28 40 54 48 39 45 47 38 34 37 39 32 33 36 38 40 39 41 41 42 41 38 36 40 38 41 39 35 34 33 35 36 36 34 32 30 29
61 90 92 93 69 74 58 67 72 50 35 36 33 39 46 50 40 43 45 38 37 43 43 33 33 34 37 39 40 41 42 43 42 43 41 39 40 38 40 43 41 40 39 38 37 38 41 43 46
60 91 91 93 71 60 68 71 68 63 40 36 37 36 39 51 43 41 36 44 46 46 43 35 33 33 34 37 40 41 42 43 43 43 43 43 43 42 41 41 45 46 45 44 42 43 44 44 43
79 80 65 53 55 68 77 86 73 66 48 36 40 39 36 57 51 46 35 36 38 47 48 43 36 33 32 33 36 40 41 43 44 44 44 44 45 44 44 43 41 41 44 47 47 46 46 47 47
91 62 47 57 54 79 76 81 73 73 54 41 45 43 38 46 55 50 41 31 31 32 36 47 44 40 37 33 32 36 39 41 43 44 44 44 44 45 45 45 44 44 43 42 43 46 48 48 48
90 62 53 56 71 74 63 59 78 79 55 47 46 42 39 35 44 48 43 39 43 34 28 26 36 45 44 41 37 34 34 38 41 42 44 45 46 46 46 46 47 48 47 45 44 44 44 48 49
80 86 79 60 72 67 60 55 60 65 47 47 42 40 38 36 34 34 40 44 47 38 32 29 26 25 29 36 42 44 42 38 38 41 43 44 45 46 47 47 47 47 48 48 47 46 46 46 44
77 84 83 74 81 56 66 55 61 55 46 43 42 46 38 36 32 28 29 45 41 44 42 39 35 30 28 32 37 35 38 44 44 42 42 44 47 50 50 48 47 48 48 48 49 50 50 49 48
88 84 79 84 77 75 64 60 50 55 52 48 41 51 49 43 39 31 26 35 39 39 41 50 46 48 46 38 39 40 38 41 49 50 50 52 52 54 55 52 50 49 49 49 49 51 53 53 51
97 94 95 80 90 83 70 56 47 48 49 49 46 41 50 45 42 37 30 24 34 39 39 46 44 41 38 35 30 28 36 38 41 39 40 42 46 50 51 52 52 53 56 56 56 56 56 55 52
96 94 77 90 88 81 71 63 56 51 46 50 55 48 45 48 45 35 31 26 25 31 40 41 42 41 40 38 35 34 33 35 32 34 39 44 44 39 35 32 32 33 42 50 56 57 55 52 50
81 96 94 80 78 74 72 64 61 65 50 46 51 54 50 44 39 39 33 28 28 24 27 40 44 42 42 47 42 39 38 37 35 33 35 46 46 43 42 41 38 39 42 43 46 52 55 53 51
84 86 86 75 74 75 71 67 53 56 62 57 43 39 41 42 45 44 38 26 25 32 32 28 37 40 42 47 51 45 42 44 44 42 43 41 43 44 42 44 46 46 45 45 45 46 50 53 62
81 81 76 69 68 71 70 60 57 62 47 55 53 45 43 32 36 44 44 37 26 21 26 31 39 42 39 38 40 46 47 46 46 48 45 49 48 49 47 47 47 48 48 49 48 49 55 54 62
84 95 80 71 68 74 80 77 76 58 56 49 45 43 39 30 30 30 29 26 26 22 18 20 24 30 39 39 38 38 41 44 48 53 60 58 59 58 58 60 55 52 48 48 54 55 59 68 69
86 89 86 96 84 94 83 73 60 48 44 54 49 39 36 30 23 20 20 18 18 22 20 17 15 15 16 19 21 21 20 23 28 38 52 62 71 65 61 62 58 52 51 48 52 54 64 64 72
96 99 97 96 96 87 73 70 52 40 46 29 33 35 24 23 21 18 17 19 17 15 17 16 14 12 12 12 13 12 12 12 13 14 15 17 24 30 40 58 57 44 34 37 50 55 54 67 76
80 73 87 100 99 98 72 68 37 27 28 39 44 43 41 23 16 17 18 17 15 14 13 13 12 12 12 13 13 14 15 14 14 14 14 14 15 18 23 26 28 34 38 40 41 43 46 50 62
91 90 99 98 98 91 63 72 37 41 30 36 40 48 40 30 20 18 17 17 18 18 17 16 17 19 20 20 20 19 20 22 24 24 25 25 24 24 28 30 33 36 41 44 46 47 48 47 49
98 98 95 92 95 79 67 70 59 42 48 50 51 51 45 35 33 34 30 29 27 28 27 26 25 24 23 21 20 19 19 19 19 20 21 21 19 20 24 26 26 27 28 29 32 39 48 58 63
100 100 94 90 64 65 63 64 59 52 48 46 48 47 49 45 40 37 37 35 34 32 30 28 26 24 22 20 19 18 17 16 16 16 17 18 20 23 25 27 28 29 30 32 33 34 35 36 42
95 97 98 97 95 84 66 58 52 55 54 48 45 46 48 43 43 42 40 38 34 32 29 27 24 22 20 19 18 18 18 20 24 28 31 32 34 36 37 37 38 38 38 39 40 40 41 42 42
99 100 97 92 95 86 78 48 48 46 44 48 53 55 48 47 44 41 38 35 32 30 30 30 30 29 28 29 29 30 30 30 32 34 35 37 37 38 38 40 41 42 43 44 45 45 49 53 53
100 98 94 83 96 60 62 54 38 43 46 54 60 61 49 46 44 44 44 48 50 47 44 41 39 36 34 34 34 35 35 34 34 34 32 33 36 37 38 28 25 31 30 28 27 33 37 47 51

GFSSGP_700_rhum_078.txt.gz
RH
71 69 46 43 44 44 36 26 35 34 32 29 26 23 22 22 43 44 44 37 34 33 38 38 30 31 31 29 30 28 26 26 26 27 26 25 24 24 24 24 24 24 20 10 9 8 6 6 6
84 79 61 50 45 50 35 27 36 34 31 27 25 23 23 26 30 31 42 41 34 35 36 37 32 36 36 30 25 28 29 28 26 27 29 29 28 26 24 22 22 22 24 18 12 10 9 9 9
84 84 70 60 53 44 34 25 38 38 34 31 26 27 26 26 26 33 42 37 36 36 33 34 32 37 37 39 37 30 21 26 28 28 28 30 32 32 30 27 23 20 21 22 23 23 21 18 15
88 82 76 66 62 40 30 32 37 40 38 34 32 28 27 27 29 36 43 40 36 36 32 33 33 36 38 39 40 39 32 21 26 28 27 26 28 31 33 33 32 29 24 19 18 17 16 16 17
89 85 78 74 64 38 31 35 45 43 39 36 35 29 27 26 28 35 43 42 41 34 32 32 33 36 37 38 39 40 40 37 25 25 26 27 27 25 27 31 32 33 33 31 28 26 24 22 21
93 92 90 79 64 44 34 37 47 48 38 35 33 30 32 37 32 36 35 41 38 37 32 31 34 36 38 39 39 39 40 40 39 33 28 26 26 28 30 29 30 32 33 32 31 30 29 28 27
87 92 90 81 66 52 40 48 50 53 41 35 32 37 40 45 44 42 32 33 43 38 32 31 34 36 39 40 40 40 40 41 41 41 38 34 32 31 32 31 32 32 32 35 37 39 40 40 40
73 93 86 79 71 51 49 66 66 66 45 39 36 34 43 42 43 40 45 45 43 40 37 31 34 36 38 40 40 41 41 42 43 42 42 41 39 39 37 35 36 36 38 37 37 39 39 38 37
62 88 98 80 72 46 51 71 75 72 54 43 39 36 38 44 45 40 46 46 40 45 45 33 32 35 37 38 40 41 41 42 43 43 44 44 43 44 43 44 41 38 43 46 47 46 46 46 46
85 89 64 52 61 54 66 74 85 79 64 57 39 37 41 55 53 41 41 44 38 44 48 40 33 32 34 36 39 40 42 43 44 44 44 45 45 46 45 45 44 43 42 42 43 45 46 47 48
84 52 47 61 77 82 92 88 89 90 72 61 45 39 48 62 63 54 42 38 43 50 50 44 36 35 33 32 34 38 40 42 43 44 44 45 45 45 46 46 46 45 45 44 44 44 44 44 46
65 52 64 72 89 99 94 78 89 98 70 61 57 40 44 44 56 54 46 38 35 38 44 47 46 40 38 36 33 32 35 38 41 43 44 45 45 46 46 46 47 48 48 48 47 46 46 46 47
63 72 71 73 86 70 88 86 88 82 84 69 55 57 42 44 46 50 54 50 44 37 35 35 38 40 46 44 42 40 37 35 35 38 41 42 44 45 46 47 48 48 48 49 49 50 49 49 49
92 94 88 86 77 70 80 78 90 89 97 80 64 54 48 40 40 40 48 49 45 45 41 35 32 30 30 32 36 36 39 44 44 41 39 40 43 45 47 49 49 48 48 48 49 50 50 51 52
95 84 94 85 80 74 61 68 84 80 96 80 71 55 45 42 40 36 35 32 49 44 41 39 37 32 30 30 31 30 38 38 45 48 46 47 50 52 53 56 56 54 52 52 52 52 52 53 55
88 93 87 81 88 82 72 54 61 67 83 74 64 61 65 50 40 37 35 35 31 47 42 43 39 38 38 40 37 36 31 31 36 39 42 43 42 42 44 44 49 50 50 50 52 56 58 59 59
76 83 90 72 75 72 72 58 51 56 84 63 61 51 49 49 40 38 35 35 31 30 44 43 43 40 41 40 37 35 34 33 34 34 31 33 37 40 43 40 37 35 35 32 31 35 44 50 52
95 97 87 83 83 92 86 74 65 54 54 59 63 57 50 47 46 48 44 40 34 28 26 40 44 46 45 43 40 38 38 37 37 38 39 38 36 41 47 45 45 45 43 42 41 39 40 41 44
91 93 76 80 83 88 88 81 66 58 48 44 43 48 56 48 44 44 44 40 35 30 27 25 29 41 49 50 49 45 43 43 42 42 46 46 46 44 45 46 45 42 45 48 48 47 47 46 48
78 87 78 80 74 81 72 60 56 49 48 51 46 44 49 57 48 46 44 37 30 30 27 24 22 25 35 49 54 54 50 51 50 47 44 46 47 46 46 50 51 54 56 57 55 52 53 52 55
93 76 70 65 71 83 76 77 68 47 46 51 52 47 44 46 44 37 39 40 36 30 27 23 22 21 25 30 38 45 48 45 44 43 42 45 50 51 55 58 58 63 67 66 64 56 53 54 53
100 93 88 77 81 81 82 85 54 46 48 52 42 52 43 49 46 42 34 36 39 36 33 28 27 23 21 21 25 30 35 41 45 46 46 45 45 43 43 54 63 67 62 58 58 59 45 43 47
91 87 97 89 87 88 87 82 69 53 47 34 26 35 52 48 41 41 40 38 39 36 27 22 24 25 21 18 18 16 16 16 16 16 17 19 24 31 44 48 45 42 39 35 33 30 32 45 47
84 78 88 95 93 98 77 88 60 47 36 30 32 27 38 46 42 46 47 37 33 27 22 21 22 23 22 18 14 13 12 11 11 12 13 14 15 18 19 21 26 30 31 34 38 40 49 49 57
99 90 98 99 98 93 72 79 64 43 36 33 30 26 32 32 36 37 34 31 27 22 20 17 15 14 14 13 13 13 15 16 17 17 18 19 20 22 24 25 32 37 42 41 38 41 50 51 49
100 91 81 90 96 82 72 80 64 46 37 40 28 42 34 47 47 46 42 28 23 19 17 19 21 21 20 20 20 20 20 20 20 20 20 22 22 22 23 23 23 26 37 41 28 27 35 33 36
99 96 84 83 74 76 69 66 57 42 40 40 45 55 57 54 54 48 35 27 31 31 30 29 29 28 27 26 24 22 22 21 20 19 18 17 16 16 17 19 22 25 27 30 32 35 36 36 36
98 91 99 99 96 89 68 66 52 42 41 40 37 49 53 55 51 46 41 36 35 35 33 32 32 30 28 25 24 22 21 20 19 18 20 22 26 29 32 34 35 36 36 37 37 37 37 35 37
98 100 97 91 91 94 87 57 48 47 47 42 42 43 48 51 52 46 42 40 39 38 36 32 30 27 25 23 22 21 21 21 22 25 28 31 33 35 36 39 37 36 37 38 38 32 30 32 33
98 100 100 87 96 77 66 54 40 46 52 51 49 52 53 56 51 50 46 42 38 37 37 37 38 38 35 33 32 33 33 32 32 33 34 35 36 36 35 33 35 38 34 27 23 24 27 26 30

GFSSGP_700_rhum_081.txt.gz
RH
63 57 43 44 41 44 39 26 27 22 15 15 20 27 25 22 23 43 42 36 35 36 33 37 36 32 28 28 28 27 26 27 27 27 26 25 24 23 22 23 23 24 15 10 9 8 6 6 6
71 69 60 44 44 46 38 19 36 38 31 31 30 27 25 23 42 43 42 38 36 38 39 40 41 39 31 26 24 28 29 28 27 28 29 29 28 27 24 22 21 22 22 20 16 14 11 10 10
78 78 71 60 46 43 35 20 41 41 35 33 31 27 26 24 41 39 39 41 38 37 38 40 41 40 39 37 33 22 21 26 28 29 28 30 31 31 30 28 25 20 20 20 20 21 22 23 23
82 86 87 80 64 40 34 25 40 41 36 36 34 30 26 24 31 37 43 34 37 37 36 38 39 40 40 40 39 36 28 20 25 26 26 26 27 28 29 30 32 31 28 24 21 19 18 17 17
88 94 97 98 85 60 33 37 30 41 38 39 37 33 30 26 26 45 48 36 33 36 34 35 36 39 39 40 40 40 38 33 26 23 23 25 25 24 26 28 30 32 32 31 30 29 28 27 26
94 94 95 98 72 55 49 42 42 44 39 39 39 36 34 29 25 32 46 45 37 31 32 33 34 37 38 39 40 40 40 40 39 37 28 25 23 23 25 27 28 31 34 35 36 36 36 36 37
87 93 91 79 81 53 51 50 41 47 42 40 44 45 34 29 25 28 37 44 43 38 30 31 34 36 38 39 40 40 41 41 41 41 40 36 32 33 31 28 29 30 32 33 33 33 33 35 35
73 94 95 85 72 57 64 52 43 47 54 47 43 59 37 31 30 29 30 37 43 41 31 30 34 36 38 40 40 41 41 42 43 43 43 43 42 39 38 43 41 36 34 36 38 41 42 42 42
63 95 99 90 82 64 68 57 49 51 56 49 61 48 42 34 34 37 37 29 31 44 37 30 34 36 38 40 41 41 42 42 44 44 44 45 45 45 46 45 45 45 45 43 41 44 45 46 47
83 78 78 70 78 59 66 57 55 58 70 58 49 48 48 39 41 41 37 29 28 41 41 35 32 36 37 39 40 41 42 43 44 44 44 45 46 46 46 46 46 45 46 46 46 46 44 45 45
74 65 76 85 80 70 73 66 58 77 71 67 81 61 63 47 48 46 43 42 42 49 47 42 32 33 36 37 38 41 42 43 44 44 44 45 46 46 46 47 47 46 46 46 46 46 47 47 47
88 86 71 93 94 78 83 67 58 71 64 70 81 80 82 59 53 48 44 45 52 53 49 52 40 32 32 35 36 38 40 41 42 44 44 45 45 45 46 47 47 48 48 49 50 49 49 49 49
85 100 98 100 98 74 74 71 67 63 71 68 68 90 83 68 68 64 66 62 60 51 53 52 48 40 37 34 33 32 33 35 38 41 42 43 44 45 46 46 47 48 48 49 49 50 50 51 51
90 99 97 95 91 79 71 78 69 73 80 85 65 81 72 66 63 61 64 60 52 52 42 39 38 44 45 45 43 41 40 39 37 36 37 40 42 43 44 45 47 49 49 49 49 50 50 51 51
90 98 99 91 83 85 82 85 60 80 89 99 68 67 69 78 60 53 52 60 63 51 50 45 40 37 38 39 37 37 37 37 40 45 46 43 42 43 47 53 57 57 57 56 56 57 57 58 58
97 100 94 92 85 77 80 66 63 83 90 98 73 74 70 71 58 56 48 46 49 48 46 43 41 41 39 41 46 45 39 36 38 38 40 48 52 53 52 50 53 51 48 45 44 40 41 45 50
96 94 100 96 92 82 78 70 55 83 87 86 81 85 88 86 68 57 50 43 38 35 38 47 42 41 41 44 44 46 41 35 33 35 38 41 39 35 41 45 45 41 38 37 40 39 38 37 37
68 95 99 88 91 96 82 76 59 65 80 79 85 70 82 71 61 54 51 50 41 40 35 35 46 42 42 42 41 40 38 34 35 35 36 40 38 39 37 39 46 47 46 46 45 46 45 44 44
52 67 86 81 78 92 94 88 71 76 81 78 82 81 77 66 59 52 44 44 42 38 38 33 31 41 41 39 39 39 39 39 39 40 42 45 45 44 41 42 45 46 46 48 51 53 54 52 51
77 52 69 70 81 81 89 91 84 79 74 80 77 68 72 79 62 52 47 48 45 42 36 33 30 28 32 38 40 42 46 46 46 46 47 48 50 50 53 52 53 52 52 55 61 63 62 59 60
85 68 66 66 74 88 87 87 76 61 53 64 58 56 53 52 56 54 44 50 48 42 36 32 31 29 34 38 43 47 46 42 44 44 44 50 58 57 54 53 50 53 61 65 68 68 67 68 64
96 77 72 69 77 82 79 91 60 60 55 49 43 47 46 47 44 46 47 44 42 42 40 36 34 29 26 26 27 30 32 37 42 51 52 51 52 51 49 49 48 52 59 65 68 62 62 60 49
95 80 84 84 82 79 78 86 68 54 40 39 33 31 39 50 48 46 45 47 42 36 39 37 34 32 30 28 26 22 23 25 29 34 37 38 34 32 28 26 32 36 39 43 44 41 36 31 30
97 99 99 96 94 91 80 80 70 48 33 32 30 32 33 48 49 52 49 50 43 41 37 36 37 31 24 21 23 25 22 18 16 15 15 16 16 16 16 19 19 20 22 23 25 29 28 34 41
99 94 98 98 99 92 76 79 69 51 44 41 40 36 30 36 48 52 54 51 47 46 46 42 38 30 23 20 17 16 17 16 14 13 12 13 15 17 19 20 21 24 31 37 49 56 59 52 46
99 89 79 90 92 91 75 92 62 45 39 40 31 31 33 32 37 53 56 49 47 49 47 43 37 31 22 17 14 14 14 14 14 15 15 17 20 21 23 26 28 28 33 38 57 43 58 42 30
100 95 84 84 81 79 68 62 51 44 38 36 32 29 28 30 38 48 49 46 42 40 37 29 22 20 19 20 22 23 22 22 22 23 24 23 21 20 18 18 18 18 20 23 28 29 33 36 38
91 93 91 89 98 91 70 64 52 39 36 39 33 32 35 40 44 51 50 48 49 42 32 29 30 32 33 31 29 28 27 25 23 22 22 20 20 20 20 22 25 29 33 36 37 38 39 38 38
97 100 91 85 92 93 91 54 44 42 40 45 37 41 39 46 54 63 64 58 48 40 38 38 38 37 36 33 30 28 27 26 24 22 22 21 21 23 27 31 34 36 37 39 38 39 38 36 29
84 78 86 92 98 96 76 63 45 37 43 49 52 48 48 56 56 57 57 50 46 44 43 41 38 35 32 29 28 27 25 25 24 25 27 30 32 34 37 39 40 40 39 38 40 39 27 22 19

GFSSGP_700_rhum_084.txt.gz
RH
60 50 40 38 40 38 31 23 18 16 16 18 18 24 27 31 37 43 44 39 32 34 33 33 33 29 26 26 27 26 26 26 26 26 26 26 25 23 22 22 22 21 17 12 10 9 9 8 8
66 59 48 46 42 43 35 19 17 24 20 17 16 19 25 25 23 23 42 40 34 36 36 38 38 32 25 22 24 28 28 28 28 29 29 29 28 27 24 22 21 21 22 22 22 21 18 16 15
74 67 57 49 47 42 34 21 23 42 35 32 36 32 28 25 24 29 38 40 36 39 38 37 41 39 36 29 20 20 24 27 28 28 28 28 29 30 30 29 26 22 20 19 18 18 18 19 19
85 78 70 62 52 41 35 27 26 45 40 50 40 38 33 25 25 45 43 40 39 39 39 41 40 41 41 38 32 26 18 20 22 23 23 23 24 26 28 30 30 31 30 30 28 26 24 24 24
91 94 79 74 66 60 40 36 26 40 42 40 37 36 30 28 25 35 42 38 36 38 39 40 41 41 40 40 40 38 32 30 23 20 20 22 23 23 26 28 30 30 31 31 31 30 30 30 32
96 94 98 83 71 66 55 36 40 35 44 44 40 36 36 30 29 36 45 34 34 36 37 36 40 40 40 40 40 40 39 40 39 33 26 25 23 23 24 25 26 27 27 27 30 31 34 37 38
96 90 94 76 66 64 62 43 40 42 46 53 43 40 47 37 29 43 50 38 34 32 32 35 36 40 39 40 40 40 41 42 42 42 41 38 33 35 38 34 31 29 29 29 31 32 33 35 38
75 90 91 85 79 68 49 60 51 41 44 56 44 57 49 57 39 30 46 47 42 32 30 32 34 37 38 39 40 41 42 43 43 44 44 44 45 43 39 42 45 45 45 41 34 34 38 39 40
69 100 98 85 73 47 44 50 47 44 43 56 50 57 50 52 55 40 29 43 45 44 34 30 33 35 38 39 40 41 42 43 43 44 44 45 46 47 47 46 46 46 46 48 48 48 44 44 43
85 84 90 81 81 70 53 55 49 46 42 52 56 45 44 48 57 52 37 28 41 43 41 32 32 34 37 39 40 42 42 43 44 44 45 46 46 47 47 47 47 47 47 46 46 46 47 48 48
80 75 86 83 81 87 72 67 62 55 49 51 70 58 56 62 77 71 57 46 30 31 44 38 31 34 36 38 40 42 43 43 44 44 45 46 46 47 47 47 47 47 48 48 48 48 48 48 49
81 91 87 93 81 77 84 77 65 63 50 52 68 76 55 64 74 69 64 52 47 36 37 45 35 32 35 37 40 42 43 43 44 44 45 45 46 46 46 47 48 48 49 49 50 50 51 51 51
78 100 89 87 81 77 85 70 75 62 54 56 72 89 67 68 66 71 72 68 64 59 52 49 46 36 32 36 38 39 41 43 43 44 44 44 45 46 46 47 47 48 48 49 49 50 50 50 51
73 99 87 92 82 80 81 67 73 59 58 67 73 79 93 70 68 78 78 71 77 73 66 58 56 51 37 32 35 35 35 37 38 39 40 41 42 43 44 45 46 47 49 51 51 52 53 53 54
86 80 81 86 94 94 98 83 57 52 62 59 86 79 84 75 74 79 76 77 76 71 65 56 52 48 46 42 37 36 36 37 39 40 39 38 39 40 42 45 50 56 58 58 58 57 54 54 57
82 84 85 91 94 96 86 56 51 51 51 52 86 96 82 77 73 70 77 73 79 71 60 53 46 44 46 48 48 44 44 41 38 40 42 45 47 48 51 57 58 55 55 51 44 38 34 34 33
92 96 88 91 99 93 89 77 57 57 54 47 65 80 81 76 74 70 67 64 72 78 72 61 55 53 52 48 45 44 44 43 41 37 36 38 43 48 50 43 44 46 45 41 39 41 43 42 42
99 100 90 94 84 100 86 78 62 57 56 63 63 86 84 81 83 81 69 65 58 60 59 57 64 55 54 49 46 48 47 45 43 36 33 36 41 42 40 42 46 45 46 47 48 47 44 47 50
71 98 91 99 94 99 97 87 80 69 66 74 84 92 87 97 86 96 85 80 64 47 40 38 33 37 45 45 41 40 39 44 41 40 44 42 44 46 44 43 43 44 46 50 48 48 52 59 62
74 87 88 79 92 94 91 81 77 78 73 67 67 65 87 94 82 89 91 78 66 52 45 41 39 34 30 35 43 44 44 44 41 43 44 47 53 53 54 55 55 55 52 53 53 56 61 64 68
88 54 74 67 92 87 86 90 68 78 86 80 79 70 69 76 69 66 68 64 58 53 50 46 43 40 33 30 30 33 36 36 39 41 45 51 58 59 61 60 55 52 52 51 56 62 68 71 72
89 67 54 60 77 96 90 82 70 66 76 78 75 56 53 61 63 64 60 64 63 59 53 48 45 42 38 34 32 33 34 32 32 40 44 45 46 54 56 55 54 54 54 53 62 69 66 63 55
78 78 66 74 84 82 87 93 68 58 56 59 63 70 70 71 67 59 52 55 60 59 52 43 43 45 41 38 35 32 30 27 28 32 35 37 40 45 52 52 52 50 48 48 52 44 37 32 34
84 94 88 82 85 89 79 78 64 52 34 39 49 49 58 64 69 62 56 51 48 52 48 46 41 42 41 39 38 35 28 29 29 25 24 24 26 30 30 29 27 23 21 21 23 24 24 24 32
100 91 99 99 97 86 69 79 68 47 39 38 37 38 43 43 42 48 51 56 51 50 50 48 41 41 37 36 34 28 24 22 21 22 23 22 19 18 19 18 18 18 19 21 24 26 29 36 61
99 78 73 90 92 91 83 93 55 37 37 35 39 40 39 34 33 39 51 55 58 57 55 50 46 45 41 36 34 29 24 18 15 14 14 15 15 15 16 17 19 22 24 27 30 32 33 36 56
98 97 86 80 83 82 72 70 40 42 38 35 33 33 32 33 34 31 40 53 60 59 56 52 51 50 48 42 34 23 19 16 15 15 15 16 16 18 20 22 21 22 22 26 27 26 23 32 33
100 82 87 88 94 92 72 63 44 31 30 33 34 35 32 30 29 33 36 48 57 60 56 50 46 42 36 27 19 19 20 22 24 22 22 23 23 22 21 20 19 18 20 24 28 32 35 36 38
100 89 87 80 87 91 91 54 41 40 39 37 40 38 38 39 37 38 41 48 55 56 55 47 39 33 26 26 28 29 28 28 27 26 24 23 23 22 20 19 19 20 24 29 34 36 38 41 41
92 82 77 72 95 98 80 62 46 41 40 39 41 43 45 47 54 62 66 65 65 63 61 51 42 40 38 37 36 35 32 29 28 26 24 22 22 22 22 25 29 31 35 38 42 43 41 41 41

GFSSGP_700_rhum_087.txt.gz
RH
64 58 44 38 38 33 26 22 20 17 15 19 23 27 28 36 53 48 46 40 32 32 33 28 28 25 24 25 25 25 25 26 26 27 26 25 24 22 21 22 21 18 15 13 11 10 10 10 10
66 59 46 45 41 38 29 20 18 19 18 15 18 22 26 27 34 42 43 40 34 33 35 34 30 23 21 24 27 27 27 28 29 29 30 30 28 26 22 21 21 21 21 22 22 22 22 22 22
69 62 52 49 48 40 31 22 21 31 27 18 15 17 22 26 27 29 28 40 34 36 33 32 38 32 22 19 22 25 27 27 28 28 28 28 29 28 27 26 23 21 20 18 18 18 18 18 19
75 68 58 53 49 40 36 26 21 43 40 29 24 20 25 27 26 24 28 38 35 38 34 34 40 39 32 25 18 20 22 23 23 23 22 22 23 24 25 27 29 30 30 29 28 27 27 26 27
83 79 71 63 54 48 39 33 25 40 43 46 40 35 32 27 25 27 41 37 36 40 39 36 40 41 40 36 30 29 25 20 18 19 20 21 21 22 23 25 28 30 30 32 32 32 34 35 36
89 88 83 72 59 56 47 36 36 33 44 44 43 37 32 34 26 32 47 34 36 40 39 40 37 41 41 40 40 39 39 37 30 24 22 22 21 22 22 22 23 25 26 28 30 31 31 31 30
88 84 83 61 64 66 60 42 36 38 46 44 40 38 37 38 41 40 48 37 31 37 37 41 40 40 40 40 41 41 42 41 40 40 39 35 32 36 37 35 31 29 27 27 29 31 31 32 33
90 85 78 92 78 61 63 58 39 39 42 46 44 43 48 41 50 55 53 41 33 33 34 36 41 40 40 40 41 41 42 43 43 43 44 46 47 44 39 42 44 46 47 47 45 42 42 39 38
63 100 96 74 71 57 62 62 60 53 46 47 49 43 50 42 42 42 57 54 40 31 31 32 37 40 39 40 40 41 42 43 44 44 45 46 47 48 47 47 46 47 48 48 49 49 50 49 49
64 89 84 81 78 76 61 49 51 55 57 50 50 45 52 44 58 44 39 49 53 40 30 31 33 37 38 39 40 41 42 43 44 44 46 46 47 47 48 48 48 47 48 47 48 47 48 48 49
71 57 80 93 92 90 63 52 52 50 59 50 47 52 52 50 55 65 59 45 52 50 44 30 32 33 36 38 40 41 42 43 44 44 45 46 47 47 47 47 48 48 48 48 49 50 50 50 50
68 61 68 94 92 78 80 64 53 55 57 56 50 58 49 50 52 64 62 56 48 56 50 47 30 33 34 37 39 41 42 43 44 44 45 45 46 46 47 47 48 48 49 49 50 50 51 51 51
66 78 92 89 93 89 67 54 61 55 53 58 53 53 66 66 62 64 69 62 52 50 52 51 39 31 34 35 38 40 42 43 43 44 44 45 45 46 46 47 47 48 48 49 49 50 50 51 51
68 80 81 87 88 100 63 64 65 50 54 54 54 56 60 75 66 64 64 64 61 56 62 61 52 36 33 35 36 40 42 43 44 44 44 44 44 45 46 46 46 47 47 48 51 52 53 55 57
76 85 90 90 90 93 72 66 46 48 51 59 54 57 66 84 72 66 65 70 73 76 77 74 73 63 38 34 35 38 40 40 41 42 42 40 40 40 42 43 44 45 49 56 58 58 57 48 46
80 76 94 88 87 84 74 54 48 44 47 48 56 60 71 77 83 72 73 80 79 91 83 74 74 72 61 52 37 36 38 35 34 35 37 39 40 40 41 43 49 55 58 56 53 46 40 36 38
77 97 84 90 86 83 92 83 67 60 53 46 50 62 73 77 79 80 74 80 85 88 81 77 73 73 64 59 52 43 41 43 45 44 42 43 44 45 50 55 56 50 44 45 43 40 41 44 42
90 99 97 76 77 96 95 94 59 47 50 46 46 55 80 76 82 77 72 73 76 87 85 82 66 64 74 70 62 53 47 44 41 40 39 37 36 39 45 46 40 40 43 45 46 45 45 46 45
63 93 83 85 85 88 92 95 57 49 54 40 48 46 52 67 80 71 65 67 70 82 84 85 81 77 72 67 58 54 50 51 53 50 43 38 39 41 45 44 45 44 43 45 46 46 47 49 52
75 76 85 87 80 90 90 96 62 47 43 42 41 54 60 69 71 69 63 75 71 74 79 88 94 88 73 76 74 58 53 52 51 50 45 42 43 50 53 55 59 58 55 52 53 54 54 53 60
90 70 79 74 95 95 88 90 82 76 61 51 44 58 72 73 73 68 71 75 82 76 74 67 58 58 58 61 56 55 47 44 47 44 48 48 54 57 55 58 59 62 65 64 64 58 60 62 65
100 78 74 76 89 90 94 82 65 66 65 55 45 47 55 73 78 80 78 88 95 84 72 67 58 53 49 50 44 39 37 40 41 42 42 42 46 53 55 54 58 60 61 60 62 62 60 62 62
98 76 80 72 89 91 95 88 59 52 61 74 58 51 52 65 73 93 88 80 71 74 71 72 60 56 50 46 43 41 33 32 32 32 32 32 34 39 40 45 54 59 60 60 62 61 58 49 33
97 86 86 77 93 93 81 90 63 58 42 43 51 46 49 51 63 78 78 79 70 70 69 65 62 52 46 45 44 42 40 36 33 30 28 28 27 27 28 29 34 40 43 47 39 30 25 21 21
98 91 94 90 91 86 75 86 62 45 43 39 39 45 50 52 57 60 76 59 56 55 53 53 53 55 48 43 44 42 39 37 33 27 22 22 25 26 25 22 20 20 21 20 18 18 21 23 27
98 78 69 91 90 88 88 92 52 30 32 44 39 36 38 43 48 59 63 61 66 61 59 52 50 52 50 46 46 44 41 38 30 25 21 17 15 15 16 19 19 18 18 19 20 23 28 30 31
99 83 74 76 86 76 71 69 37 43 33 32 34 40 40 41 41 42 49 49 44 47 54 59 56 55 52 49 49 49 46 43 36 27 19 14 12 13 14 15 16 18 22 24 25 29 30 24 23
99 91 77 76 91 84 74 62 38 36 39 40 40 39 37 36 41 40 37 36 45 42 61 62 59 57 56 54 51 47 43 36 26 16 16 16 16 17 20 21 21 22 21 20 19 20 21 24 29
98 100 86 74 90 78 75 50 43 44 43 38 38 34 37 36 32 32 32 38 41 54 64 64 62 60 56 53 48 41 32 25 20 23 24 23 23 23 23 22 22 21 21 20 21 23 28 32 37
100 98 84 67 94 84 73 53 50 44 45 45 44 41 38 36 36 36 38 41 56 67 70 67 65 60 50 40 35 32 29 27 29 29 29 28 26 24 23 22 21 20 21 23 27 31 36 39 44

GFSSGP_700_rhum_090.txt.gz
RH
64 58 52 41 44 42 32 35 24 18 18 25 28 30 36 48 62 53 49 39 32 30 31 24 22 22 22 24 26 26 26 26 26 26 24 23 22 22 21 18 15 13 11 10 10 10 11 11 13
68 62 50 45 48 40 32 34 21 20 17 19 23 28 29 42 53 48 46 37 34 31 30 29 24 22 24 26 27 27 28 28 28 28 28 26 24 21 21 21 21 21 21 21 20 21 22 21 20
71 66 58 60 50 39 30 36 26 20 18 16 18 23 28 29 39 45 44 35 34 33 32 31 27 19 20 25 27 28 28 28 28 28 29 28 27 25 22 20 19 19 18 18 18 18 19 20 22
78 73 64 64 50 45 40 36 20 19 21 18 16 18 20 26 28 32 31 33 34 35 32 35 34 23 16 19 23 26 26 26 26 24 25 24 25 26 27 28 28 28 28 28 27 27 28 29 31
84 80 83 64 50 47 51 32 23 27 33 24 22 24 18 21 27 25 26 33 35 37 34 36 38 34 23 18 18 19 21 20 20 20 20 22 21 23 25 28 29 30 30 31 32 33 34 34 33
91 88 80 63 53 61 52 36 29 32 42 36 37 34 20 20 26 26 36 33 35 38 37 38 40 40 37 34 32 27 22 20 19 19 20 20 20 21 22 24 26 27 27 28 28 27 27 28 29
92 91 71 57 52 61 55 40 38 40 40 44 46 49 34 27 26 32 46 32 35 38 39 40 39 40 40 40 39 39 37 34 31 28 27 29 28 26 26 26 26 26 26 27 26 27 27 29 30
93 97 72 60 55 57 68 50 40 45 47 45 46 42 44 40 36 31 49 35 33 34 40 40 40 41 40 40 41 41 41 41 40 40 42 43 37 35 36 41 43 44 46 46 48 48 48 47 44
80 99 87 61 61 58 71 57 50 40 45 46 49 41 42 44 42 34 50 41 32 30 35 39 40 40 40 40 41 42 42 42 43 44 44 45 46 47 47 47 46 46 47 48 49 49 49 49 49
57 97 76 69 69 70 70 75 70 60 48 46 48 47 42 48 43 47 52 46 35 31 29 36 38 39 40 40 40 42 43 43 43 44 45 46 48 48 48 48 48 48 47 47 47 47 48 48 49
45 76 83 79 87 95 81 75 71 62 71 55 52 48 48 49 44 43 53 61 52 38 30 30 36 37 38 39 40 41 42 43 44 44 46 46 47 47 47 47 47 47 48 48 49 50 50 50 51
45 49 90 100 89 93 87 76 62 66 68 63 57 52 49 58 46 42 41 52 61 53 40 29 31 35 36 38 38 40 41 42 43 44 45 46 46 47 47 47 48 48 48 49 49 50 50 51 51
35 89 99 95 94 92 98 76 73 65 56 49 56 54 49 50 54 54 47 47 55 58 60 54 31 32 35 37 38 38 40 41 43 44 44 45 45 46 46 46 47 47 48 48 49 49 50 51 51
73 94 98 100 100 83 68 80 80 62 65 50 62 58 55 53 56 52 55 56 48 49 53 54 56 36 34 36 38 39 40 41 42 43 44 44 44 45 45 46 46 47 47 47 48 49 52 54 55
100 91 87 98 91 81 67 84 44 77 68 51 57 61 55 55 56 62 59 60 60 53 49 54 52 59 37 36 38 42 42 42 43 43 44 44 44 44 44 45 46 45 45 46 50 55 57 57 48
100 93 85 95 96 87 85 70 84 88 69 48 53 62 56 57 58 59 74 69 64 56 55 57 55 60 54 44 39 41 43 44 44 44 44 43 44 42 40 41 42 43 45 52 58 55 51 45 37
99 76 69 85 82 92 72 69 79 72 50 45 54 58 58 55 59 58 69 71 65 66 67 74 79 77 72 60 51 41 41 43 45 42 41 39 37 38 41 42 44 50 55 56 48 44 43 39 40
86 70 66 73 92 99 89 77 82 50 45 46 42 48 55 49 56 57 73 73 76 73 82 84 82 82 72 67 73 75 50 40 41 36 37 44 46 45 44 48 50 49 44 40 45 44 42 41 44
66 68 65 67 90 98 84 81 85 71 63 54 50 42 48 62 76 60 71 78 84 78 80 89 83 76 74 72 73 71 60 49 47 52 51 46 44 41 41 42 42 40 40 44 44 43 45 46 49
97 64 76 68 82 85 80 84 86 86 60 46 39 42 42 54 76 65 60 77 77 79 86 88 88 85 82 77 77 76 76 72 68 65 55 49 44 44 49 53 55 52 50 51 51 52 53 55 58
96 67 65 79 90 97 86 86 82 78 50 42 38 35 42 47 58 64 57 75 72 76 82 84 87 87 82 79 80 88 90 75 78 74 65 58 59 57 55 55 55 59 58 59 62 64 67 71 64
98 76 82 81 82 76 85 51 63 75 57 33 31 33 38 45 67 82 73 70 80 84 97 86 84 69 85 89 88 91 90 86 92 92 76 61 51 50 51 54 55 57 57 56 60 66 70 67 67
98 93 82 72 76 82 94 78 50 54 74 75 44 34 40 44 72 75 84 82 77 81 87 82 76 77 68 65 92 81 73 79 86 83 87 85 57 46 51 54 56 55 50 50 56 64 67 67 66
97 90 82 78 89 84 58 71 43 56 51 40 37 37 35 46 61 79 88 86 84 87 90 78 74 67 62 64 64 66 62 62 54 54 48 42 39 36 35 34 35 38 38 42 50 56 56 54 46
98 98 96 94 86 58 60 77 50 52 38 31 30 31 35 38 42 50 72 84 87 90 84 80 86 92 74 71 69 64 59 54 54 47 38 36 34 30 28 27 28 26 25 23 23 24 24 23 22
98 95 61 58 55 44 90 68 51 30 34 42 38 34 37 40 47 51 56 64 89 97 86 75 76 74 71 69 63 54 51 50 44 45 41 35 27 22 20 18 16 16 18 20 22 19 18 20 23
99 98 72 76 72 55 56 56 46 33 29 29 37 33 33 32 36 45 56 62 72 91 96 87 71 57 55 54 54 53 50 50 48 46 41 35 33 30 20 15 13 13 13 15 17 18 21 25 26
97 100 83 75 76 54 60 53 27 40 45 42 37 36 39 39 38 36 41 46 55 70 80 66 50 50 60 60 56 53 51 50 50 48 44 38 32 22 14 15 15 16 17 20 23 22 21 20 21
93 99 88 78 85 47 53 42 46 46 44 40 36 33 35 35 33 38 39 37 38 44 48 48 42 48 62 62 60 58 56 54 52 48 43 36 26 17 15 18 20 21 22 23 23 21 21 21 22
80 99 90 76 86 66 68 46 50 46 42 41 41 40 35 37 35 37 39 37 36 39 44 54 57 58 65 63 61 59 56 53 47 38 31 25 22 20 22 23 24 24 25 24 22 21 21 23 30

GFSSGP_700_rhum_093.txt.gz
RH
63 60 55 44 62 45 34 26 23 27 30 32 34 36 42 52 56 55 52 40 30 30 27 22 19 19 20 21 24 25 25 25 25 24 22 21 21 19 16 12 11 10 9 9 9 10 11 13 17
67 63 54 68 58 39 32 27 32 34 32 35 30 40 42 53 58 54 50 38 32 29 26 23 22 22 22 24 25 26 26 27 27 25 24 22 21 21 20 20 20 19 18 18 20 21 21 20 18
69 67 77 72 62 39 30 28 35 37 34 25 26 30 38 57 57 47 48 34 33 30 28 25 20 20 23 25 26 27 27 28 29 28 27 24 21 20 19 19 19 19 18 18 18 18 20 22 22
77 73 77 65 51 42 33 29 33 47 23 17 31 31 39 41 48 46 47 31 32 33 30 26 20 17 21 24 25 26 27 28 28 27 27 26 26 26 26 25 25 25 25 26 26 27 29 32 33
88 88 82 67 51 43 37 38 37 49 34 23 18 41 51 29 34 46 36 31 31 34 32 32 23 16 16 18 21 21 22 23 23 22 22 24 26 26 27 28 28 29 29 31 32 32 32 29 28
99 92 84 63 51 43 40 47 45 46 51 40 24 53 63 24 28 28 29 32 30 34 36 36 32 23 18 17 16 17 18 18 19 20 21 23 23 25 26 26 27 27 27 26 25 25 26 26 26
96 95 74 55 46 43 47 51 44 43 53 36 50 56 60 19 22 27 28 32 33 36 37 38 37 34 32 31 27 21 19 19 19 19 20 21 22 22 22 23 24 24 24 24 25 26 27 27 28
99 99 76 55 49 42 52 52 52 46 50 42 43 81 59 18 18 26 28 34 32 36 38 38 39 39 38 38 37 34 32 30 28 27 26 26 28 30 33 36 36 38 40 43 45 46 48 49 49
97 100 90 56 47 41 51 50 54 55 61 46 48 60 48 30 24 26 34 38 32 40 38 40 39 39 39 40 40 40 40 40 38 38 39 41 44 44 45 44 45 45 46 47 48 49 49 49 49
92 98 85 63 48 42 48 60 65 64 63 46 46 49 45 45 49 32 42 40 34 35 40 42 38 39 40 40 40 41 42 43 43 43 44 44 46 47 48 48 48 48 48 48 48 48 48 49 49
97 94 86 65 58 59 74 70 70 66 59 57 49 48 49 50 62 55 40 45 33 30 39 42 40 39 39 40 41 41 42 44 44 45 46 47 47 48 48 47 47 47 48 48 49 49 50 50 51
96 47 80 82 78 82 88 88 65 71 63 63 67 48 47 60 55 61 49 52 48 33 31 36 41 40 38 38 40 42 42 43 44 44 46 46 47 47 47 47 47 48 48 48 49 50 50 50 51
90 80 73 92 95 78 80 88 76 65 71 71 71 51 49 47 60 51 58 60 60 43 33 31 33 37 38 39 38 40 43 42 43 43 44 45 46 46 46 47 47 47 47 48 48 49 49 50 51
80 88 89 80 80 99 96 84 72 74 68 78 80 59 56 49 49 58 50 52 67 60 47 37 31 32 36 37 37 37 39 41 42 43 44 44 45 45 46 46 46 46 47 47 47 48 48 52 54
98 97 96 91 80 96 94 79 69 72 82 86 81 61 50 55 48 50 56 53 49 53 62 58 52 36 32 37 38 38 38 39 40 42 43 44 44 44 44 45 45 46 46 46 46 46 51 57 56
89 100 78 79 82 75 88 66 63 70 73 86 74 72 63 56 54 48 52 57 59 52 51 59 59 62 56 46 39 42 42 41 42 41 42 43 43 44 44 45 45 45 43 44 45 51 58 54 45
97 96 68 67 68 75 82 67 51 65 72 78 73 72 72 82 74 51 50 59 60 59 56 54 52 55 64 67 55 51 53 48 45 42 43 44 45 45 45 44 40 40 42 45 54 58 51 43 40
96 92 62 56 85 87 80 69 58 69 73 70 70 66 70 76 79 64 51 53 69 64 64 60 55 55 56 62 67 59 60 53 46 44 46 46 45 44 40 39 42 44 48 52 54 43 40 42 41
97 77 53 48 66 72 76 67 58 75 78 73 63 63 65 72 76 76 50 52 55 71 68 64 65 64 64 69 69 68 64 63 54 53 52 48 43 40 44 46 46 45 42 43 39 40 43 44 46
99 99 66 47 78 77 77 71 62 69 76 72 65 59 61 69 73 78 63 50 51 61 70 78 77 85 82 73 71 72 86 88 80 62 52 56 56 53 50 49 51 46 43 43 44 46 49 52 56
97 94 69 52 84 86 83 68 64 65 70 73 70 64 61 59 70 72 84 58 47 55 65 79 89 81 89 83 80 72 74 78 72 66 72 73 71 66 63 59 60 54 47 49 54 57 62 65 66
98 84 86 67 83 63 76 56 55 62 67 68 71 68 68 64 58 75 88 53 58 63 74 76 81 92 87 90 82 79 68 76 78 66 74 87 79 75 72 74 70 69 59 56 58 61 62 62 65
91 83 77 83 72 66 70 58 41 48 59 62 64 63 63 66 42 56 86 46 62 65 71 79 79 85 90 91 93 85 87 80 86 73 78 87 74 83 96 97 95 87 55 56 60 62 60 57 63
93 91 93 89 78 85 58 53 34 51 51 54 58 59 56 31 35 82 81 54 62 66 70 73 77 80 90 86 90 85 92 96 95 91 96 93 88 81 74 65 68 68 59 54 53 54 51 54 55
97 99 97 95 95 54 47 58 40 42 48 50 56 57 58 46 58 72 96 55 64 70 75 85 91 86 82 86 79 76 80 81 94 92 94 91 90 68 51 53 56 37 33 32 31 30 29 29 29
96 98 85 73 70 48 61 47 44 46 48 43 47 54 58 65 53 57 72 70 77 83 93 92 93 80 76 86 83 77 70 76 77 80 78 71 64 55 48 39 32 26 23 21 20 21 26 28 34
96 98 96 73 45 44 49 45 47 41 30 37 37 33 37 41 57 58 49 63 66 76 86 85 88 90 92 89 83 85 87 86 86 78 80 80 67 49 43 38 38 34 23 20 15 15 17 18 20
97 97 85 76 64 54 42 32 36 46 54 37 31 38 31 31 36 38 42 53 57 58 71 86 96 97 89 86 82 72 60 59 58 59 58 54 49 48 46 39 32 24 16 15 18 18 18 20 21
97 96 94 80 74 43 51 36 51 55 54 47 35 25 32 34 29 29 28 32 44 48 58 78 85 91 97 93 77 69 63 59 56 55 55 54 52 50 46 40 30 22 21 22 22 23 23 23 22
96 86 86 68 68 66 68 48 55 46 43 40 38 34 33 34 33 34 33 35 35 42 48 62 72 83 81 83 62 64 67 64 59 58 57 55 52 48 40 32 26 25 28 27 26 26 25 25 24

GFSSGP_700_rhum_099.txt.gz
RH
66 77 58 60 51 41 37 29 30 32 34 35 33 39 49 62 64 60 52 32 27 26 23 20 19 19 18 18 18 18 19 19 19 19 19 17 14 10 8 8 7 7 8 9 12 17 21 20 18
72 80 64 62 60 50 38 27 22 32 33 31 31 39 53 56 65 53 48 31 27 26 22 21 20 19 18 19 21 21 21 21 20 19 19 17 15 12 11 11 12 14 16 20 21 18 17 18 20
88 96 74 75 72 49 41 30 23 27 30 31 32 43 59 56 68 52 50 34 31 25 23 20 19 19 20 22 22 22 22 21 20 20 19 19 19 19 19 19 20 20 19 18 19 21 23 25 28
100 98 92 83 61 43 39 32 22 29 30 31 32 40 48 62 62 58 51 30 31 26 22 21 21 21 21 22 23 23 24 22 22 20 19 19 19 19 19 18 18 20 23 25 28 29 30 30 27
98 99 99 97 64 44 40 35 39 43 31 29 31 39 48 58 68 59 56 34 29 25 25 23 21 20 21 22 23 22 23 23 22 20 20 21 21 22 23 25 27 28 30 29 27 24 22 22 23
96 99 100 100 65 50 42 34 51 38 35 28 29 32 46 56 55 62 63 32 27 27 26 22 19 18 20 20 21 21 20 20 20 20 20 20 22 23 25 26 27 25 22 21 21 20 20 21 23
84 99 100 91 75 59 43 41 49 42 34 32 28 31 45 50 51 59 51 43 26 27 26 22 17 15 16 17 17 18 16 16 17 16 18 19 19 21 21 21 20 20 20 21 26 34 41 45 46
99 100 98 96 75 64 44 52 56 45 38 34 29 40 45 48 46 52 45 37 29 28 27 25 18 14 12 13 14 15 15 15 16 16 17 18 19 19 19 20 20 25 34 40 43 46 49 50 50
93 95 100 93 82 60 52 63 47 46 42 41 35 37 41 51 51 36 49 42 44 30 28 27 21 20 17 15 14 15 16 16 18 18 19 21 22 24 27 31 36 41 46 48 50 51 51 51 51
98 98 97 99 80 66 61 59 54 45 48 45 39 35 49 60 57 37 35 45 36 34 31 29 27 28 28 25 25 23 21 21 22 22 24 28 34 39 44 47 48 49 50 51 51 51 52 52 53
82 95 98 91 89 72 66 60 57 58 49 44 43 46 45 63 58 46 32 31 32 35 33 31 32 34 34 34 34 32 32 31 32 33 36 39 41 46 48 49 49 49 49 50 50 50 51 52 52
75 83 97 96 100 93 81 68 66 60 54 48 43 48 39 43 47 46 29 32 32 38 34 33 34 38 37 37 37 37 38 38 39 40 42 44 44 45 48 48 48 48 49 49 49 50 50 50 50
99 85 81 96 98 97 98 72 96 88 66 56 46 50 47 35 42 37 50 41 45 42 36 34 35 38 38 39 39 39 40 41 42 43 44 46 46 47 47 48 48 48 48 48 48 48 49 48 48
100 93 83 88 98 99 98 93 87 76 79 68 61 52 47 46 48 56 69 48 51 50 39 38 36 37 40 40 40 40 42 42 43 43 45 46 46 47 47 47 47 47 47 47 47 46 45 46 47
100 96 80 94 81 98 98 99 85 90 87 89 86 72 54 48 50 66 69 67 60 53 45 41 64 52 39 40 41 40 42 43 44 44 44 46 46 46 46 46 46 46 45 46 45 44 44 44 47
100 96 83 86 83 78 99 88 100 100 99 97 97 77 61 52 52 56 67 69 61 65 66 50 52 59 54 44 44 42 40 41 43 44 44 44 45 45 45 45 45 45 45 45 45 41 43 45 49
94 97 86 76 87 86 92 99 96 100 94 95 98 87 70 53 51 51 57 65 70 75 65 69 51 43 50 48 54 55 47 48 40 42 42 43 43 44 44 44 44 44 45 46 45 41 43 46 49
84 81 97 75 98 93 70 77 91 80 99 95 97 98 80 63 50 50 49 54 58 62 74 67 77 62 51 47 46 53 46 51 52 46 41 42 41 42 42 43 43 45 46 47 42 42 44 46 45
83 90 98 78 97 87 67 82 78 98 96 100 97 81 80 72 62 55 48 49 51 56 57 59 59 69 72 63 51 57 53 41 40 46 48 48 43 42 45 46 48 48 48 47 41 45 46 46 41
98 95 88 76 75 85 83 94 93 78 90 73 62 66 72 76 76 66 53 48 48 50 56 61 70 72 69 66 62 58 65 69 74 64 58 57 58 57 54 59 56 54 50 43 45 54 54 49 52
96 99 80 75 67 59 65 79 83 80 58 79 66 73 62 71 71 73 72 54 49 48 48 55 63 67 72 73 73 71 70 70 69 64 69 76 84 87 88 80 74 67 55 56 63 61 56 60 66
98 98 93 81 77 79 72 85 59 68 64 57 72 69 70 63 68 69 66 61 40 46 48 47 49 53 61 71 71 76 81 80 82 73 71 81 90 90 93 92 90 91 92 83 83 87 67 62 71
97 96 98 86 97 94 98 86 60 71 65 53 67 68 62 62 63 64 68 68 37 45 44 43 43 44 48 52 63 79 82 84 73 68 71 74 95 99 99 95 96 100 99 97 93 98 97 95 90
96 99 98 98 99 90 79 97 55 62 51 63 70 58 55 63 63 63 61 64 52 33 37 32 31 35 38 52 67 73 86 77 85 81 76 78 94 97 100 95 100 97 97 94 95 93 96 98 96
94 99 98 98 98 92 73 93 46 50 49 48 54 62 46 61 63 62 56 58 62 66 35 38 42 45 45 55 72 74 69 67 68 76 84 89 86 86 97 98 99 100 99 100 98 98 96 98 95
96 94 92 93 95 76 72 73 48 42 35 39 49 50 50 47 56 60 54 52 58 70 81 73 55 52 50 53 64 70 73 83 87 86 84 84 94 97 97 90 99 100 91 99 99 98 94 73 50
93 97 100 98 70 68 76 57 56 44 50 51 52 52 58 55 51 48 52 52 51 55 62 46 51 54 60 72 74 76 80 78 86 84 73 65 74 81 76 76 72 72 68 63 52 52 51 50 55
96 84 90 97 92 86 59 47 42 46 45 45 50 54 58 60 57 61 47 51 86 62 40 48 45 49 68 80 80 80 80 87 78 74 72 78 77 71 77 70 69 73 69 62 56 54 51 44 34
83 78 93 96 84 86 82 54 46 42 45 44 39 54 61 60 62 64 68 68 75 65 61 44 44 51 59 75 84 89 89 84 84 82 82 84 80 70 77 70 67 66 62 58 56 54 49 42 36
69 73 87 90 89 87 78 66 62 54 49 50 36 32 55 62 66 67 68 60 58 50 40 39 40 54 67 84 90 89 87 92 88 96 96 98 80 74 69 65 62 60 59 58 56 54 49 40 33

GFSSGP_700_rhum_105.txt.gz
RH
88 76 75 62 69 75 47 41 37 34 37 63 44 45 47 49 61 39 36 29 21 20 22 19 19 17 18 17 17 17 15 14 15 15 34 58 69 74 86 83 22 7 9 16 20 18 17 18 20
72 94 84 74 89 80 49 35 35 34 34 38 53 46 42 48 49 56 42 26 22 24 24 20 18 18 18 18 18 16 16 16 17 19 38 34 41 50 42 12 8 12 19 19 17 18 21 23 25
35 97 98 100 96 84 46 29 25 32 35 37 57 53 47 52 42 56 47 31 25 28 24 20 19 19 19 19 18 19 19 18 18 18 15 13 11 9 9 11 17 20 17 18 21 25 26 27 24
59 55 100 100 98 65 45 28 23 31 34 36 60 69 51 42 46 54 49 37 32 28 22 20 20 20 21 19 20 20 20 19 18 17 14 12 12 14 17 19 18 18 21 24 26 25 20 20 20
71 56 94 100 99 56 47 38 34 27 31 38 42 54 49 57 50 53 50 30 33 24 22 21 21 20 20 22 22 21 20 20 19 18 18 18 19 19 19 18 20 23 24 22 20 20 19 18 21
100 75 90 100 99 66 52 49 41 32 29 36 43 67 52 51 59 58 56 30 29 24 23 22 21 21 22 22 23 22 21 20 19 18 18 18 18 19 20 23 24 21 19 18 18 22 32 36 37
94 99 67 85 99 84 75 59 51 39 36 28 40 60 60 55 67 63 60 38 27 24 23 22 22 23 23 22 23 21 20 20 18 18 18 19 20 21 22 21 19 18 18 28 33 35 37 41 39
95 100 82 74 95 92 86 70 54 44 31 30 39 47 48 58 60 81 71 51 28 26 25 23 23 22 23 23 21 19 18 18 18 18 19 20 20 19 19 18 18 27 32 35 37 41 41 46 48
87 99 99 66 93 94 99 90 57 49 40 36 42 45 41 47 63 79 80 67 40 46 30 25 23 21 22 20 18 16 15 16 16 17 18 19 18 18 18 24 30 36 44 48 50 52 52 52 53
88 99 93 58 62 88 99 96 63 56 53 48 47 53 46 49 58 48 62 69 65 42 38 28 25 21 18 16 14 14 14 15 16 17 17 18 18 21 29 38 45 48 50 51 52 52 52 52 52
94 94 91 86 68 86 93 99 78 71 55 48 48 51 50 62 70 56 54 51 78 44 40 33 28 22 15 13 12 12 14 14 15 16 18 19 24 32 42 47 49 51 51 51 51 51 50 50 50
100 80 85 92 94 85 97 99 100 78 68 48 52 50 51 54 59 63 67 63 73 63 60 44 31 23 16 14 13 14 14 14 15 16 20 27 34 39 41 44 47 48 49 50 50 50 50 49 49
96 83 68 100 92 94 98 98 100 92 64 56 52 60 47 48 56 57 59 65 68 63 49 40 31 22 16 15 16 17 18 18 21 27 33 36 40 43 46 48 49 49 49 49 49 49 48 48 47
96 92 69 97 93 97 98 99 100 87 64 60 60 63 65 55 60 60 70 75 67 68 44 40 34 24 18 20 23 24 27 29 32 36 40 42 45 46 48 49 49 49 49 49 48 48 48 47 46
86 99 81 80 96 76 99 98 100 81 66 66 68 66 74 72 60 59 70 69 65 64 54 59 34 26 20 24 29 32 35 37 38 40 43 45 47 48 48 49 49 48 48 48 48 47 48 47 45
95 92 89 65 78 86 98 98 100 86 72 82 73 72 77 79 74 67 69 69 73 78 64 49 36 34 24 26 31 34 38 39 40 42 45 46 47 48 49 49 49 48 48 47 47 46 47 48 44
98 94 94 75 74 93 92 96 100 99 89 87 79 71 76 79 81 82 74 72 83 70 74 64 41 36 39 31 31 34 37 40 41 43 45 46 47 48 48 48 48 47 47 47 46 46 47 48 47
97 90 65 82 82 99 80 86 98 99 100 85 79 71 76 75 76 83 84 71 81 84 82 80 52 42 35 35 33 34 36 38 41 42 44 45 46 46 46 46 46 45 45 45 46 45 46 48 50
95 98 77 79 78 81 85 77 92 98 100 97 87 67 75 78 75 80 87 92 91 93 97 66 85 62 53 41 42 38 37 38 42 46 40 41 42 43 43 44 44 44 44 44 45 47 49 53 54
94 98 85 76 72 98 88 76 81 98 99 98 95 67 68 70 68 73 87 90 83 85 94 86 80 80 93 92 79 73 62 51 61 63 70 57 56 54 56 50 51 55 54 51 56 61 63 63 66
95 97 86 84 95 94 95 90 86 94 93 95 99 84 76 70 62 63 67 85 98 83 78 79 73 80 69 72 87 83 83 74 68 61 54 58 62 63 56 57 62 70 70 70 69 67 84 89 95
96 99 94 70 79 98 97 99 100 90 82 79 98 97 76 70 64 60 61 68 78 90 97 93 76 77 74 88 79 80 82 83 73 75 80 67 62 65 65 68 64 63 80 89 81 83 98 97 91
98 86 97 87 93 94 98 76 96 98 92 94 95 96 82 76 78 70 66 61 59 57 60 76 77 78 78 79 75 79 78 83 85 82 58 60 60 73 76 74 81 92 93 95 100 98 100 99 99
98 91 79 84 93 91 81 78 80 80 49 65 61 83 88 86 88 85 81 78 69 61 57 59 67 70 73 68 68 71 69 72 73 67 70 78 81 91 95 99 92 82 90 94 83 94 90 89 97
98 88 96 97 97 93 78 73 44 49 44 47 36 46 79 89 96 80 75 74 69 63 59 58 58 57 55 68 57 55 58 58 58 61 77 74 74 80 77 81 94 83 72 70 83 85 88 94 100
97 96 83 95 97 98 97 80 53 53 55 38 37 37 48 64 80 72 71 72 70 70 53 55 55 56 58 63 64 64 59 59 55 55 66 79 75 77 84 83 70 63 62 80 84 80 78 93 90
96 98 89 84 87 86 87 68 58 50 49 46 37 41 43 37 47 69 65 66 69 64 68 60 46 45 58 64 65 61 55 58 54 56 64 71 76 77 75 72 74 73 75 80 75 74 81 79 71
96 97 95 84 82 94 86 60 51 47 50 38 42 48 55 66 70 70 61 61 65 64 64 62 54 55 64 63 57 53 50 49 51 58 75 83 80 82 79 82 86 82 78 79 78 75 76 75 74
90 92 92 96 88 87 85 61 61 56 49 48 46 48 50 58 61 58 59 68 67 65 63 60 57 57 58 58 49 45 42 50 58 72 78 78 74 70 81 91 78 90 90 89 83 83 76 76 68
79 87 87 78 91 81 70 78 68 49 50 50 48 45 50 52 51 53 55 58 63 66 66 65 64 60 58 60 52 42 58 66 76 73 84 80 85 81 95 89 77 66 83 82 77 72 69 71 72

GFSSGP_700_rhum_108.txt.gz
RH
13 68 80 81 81 76 63 45 40 38 40 45 50 48 57 55 54 59 47 42 28 18 16 18 18 18 16 16 15 16 16 16 14 13 16 30 60 83 90 83 18 7 13 19 18 16 18 19 22
12 33 93 100 100 100 77 39 41 37 36 38 51 47 48 47 52 60 44 38 23 18 18 19 18 17 16 16 17 17 16 15 18 33 47 59 70 86 84 23 8 15 19 17 18 19 22 25 26
24 26 81 100 100 99 72 40 30 38 38 36 45 60 47 49 46 49 56 42 22 19 22 21 19 17 17 17 18 17 17 18 21 54 44 30 38 44 11 9 18 19 17 19 21 24 25 22 20
35 37 49 96 99 95 62 38 34 36 40 42 37 50 64 52 52 49 56 50 22 23 26 22 19 18 18 18 18 18 19 19 19 17 14 12 10 9 12 19 18 18 21 24 25 21 19 20 20
38 68 75 61 93 100 70 45 46 37 37 43 62 44 56 61 63 59 55 54 24 29 26 21 19 19 19 18 20 20 19 19 18 15 13 12 13 17 19 18 20 23 23 20 19 18 19 22 28
80 84 98 64 60 98 92 65 60 46 35 37 47 65 56 67 74 65 57 51 26 31 24 20 20 20 20 20 21 20 19 19 18 17 17 18 19 18 18 21 22 20 18 17 19 26 30 32 33
46 100 99 81 40 56 85 91 82 50 41 33 38 60 61 56 83 78 59 39 28 27 22 21 21 20 21 22 22 21 20 19 18 18 18 18 18 20 22 20 17 16 18 28 32 30 31 34 36
81 96 100 88 64 49 48 100 88 62 45 36 32 36 80 67 68 90 74 37 28 25 23 22 21 21 22 23 23 22 20 19 17 18 17 18 21 22 19 17 17 26 30 33 39 44 46 45 44
69 96 100 86 81 42 64 82 88 58 55 48 38 35 68 71 69 98 86 49 30 26 24 23 22 23 23 24 23 21 20 18 18 18 18 19 19 18 17 20 27 33 40 45 48 52 54 53 50
72 92 75 54 72 78 71 90 97 78 76 54 42 45 52 67 64 79 87 69 38 26 25 25 24 25 24 24 21 20 18 17 18 17 18 17 16 17 22 30 38 42 46 48 49 49 51 53 54
64 74 52 55 85 86 80 96 73 100 91 71 54 48 47 62 70 64 96 80 45 32 27 28 27 27 25 23 20 18 18 16 18 17 16 16 15 23 31 38 43 46 49 50 50 50 50 50 51
84 58 61 48 84 94 93 72 89 98 92 70 64 51 58 59 63 53 74 68 90 51 38 43 30 28 25 23 19 17 16 16 16 15 15 17 22 31 37 42 46 48 49 49 49 49 48 47 47
86 71 66 64 69 90 98 99 84 99 97 78 66 61 67 62 76 82 75 76 72 64 48 49 41 30 25 23 19 17 17 16 16 16 18 24 32 37 41 45 47 49 50 50 49 48 48 48 47
95 95 77 70 66 82 96 99 99 56 100 81 57 67 62 68 67 75 85 75 72 72 71 52 49 42 26 20 18 18 17 17 17 21 28 34 40 44 47 49 50 50 50 49 49 48 48 48 47
99 86 81 84 71 64 98 98 99 59 100 92 73 69 67 65 66 64 57 78 72 70 72 46 66 43 30 20 20 19 18 19 24 31 37 41 44 46 48 49 50 49 49 49 48 48 47 48 48
96 99 76 69 71 64 99 93 100 71 99 99 84 69 65 68 84 68 64 81 75 73 72 67 42 36 37 24 19 20 21 23 30 37 42 44 46 48 49 49 50 49 49 48 48 48 47 47 48
74 95 83 95 72 67 98 93 88 72 99 100 87 72 65 64 75 84 87 91 81 74 68 56 47 40 33 23 22 22 24 26 33 40 44 47 48 49 49 49 49 49 48 48 47 47 47 47 48
84 96 96 89 62 64 77 99 83 84 97 100 99 83 61 66 72 74 86 90 92 67 71 74 65 48 41 27 25 27 27 30 34 40 45 47 48 49 48 48 48 48 48 47 46 46 46 47 49
90 93 97 82 67 71 85 99 79 97 96 100 100 88 77 67 75 76 85 96 99 98 90 79 75 67 57 36 29 26 29 32 36 39 42 45 46 46 46 46 46 46 45 44 45 46 46 49 55
93 96 95 53 93 97 97 92 90 93 88 98 100 99 88 83 80 78 79 95 94 97 99 94 93 76 45 57 50 38 32 35 37 39 41 41 42 43 44 50 55 55 48 51 58 62 60 58 62
81 97 91 71 88 97 99 98 95 97 98 97 98 100 92 90 92 92 90 95 93 82 91 88 94 92 73 86 74 61 59 58 49 52 53 75 69 69 67 62 60 55 57 64 74 81 81 76 76
94 88 100 97 75 98 96 98 100 93 93 83 98 98 96 93 89 89 87 88 88 86 82 96 87 95 87 90 88 92 97 82 82 88 82 85 86 79 78 76 75 74 80 81 85 92 94 97 95
99 87 97 91 79 98 97 83 99 85 78 88 92 100 94 85 80 83 77 80 86 83 93 94 87 89 99 99 96 86 84 86 96 94 84 81 81 77 73 76 80 90 97 99 99 96 91 78 87
99 97 91 90 88 94 92 62 70 94 92 88 88 98 100 89 81 74 70 67 74 93 99 89 96 94 87 91 99 99 99 98 98 90 87 81 76 76 84 92 88 84 90 73 81 90 77 82 77
90 97 96 90 88 96 84 63 56 62 58 66 71 96 98 84 84 70 63 63 64 69 78 87 96 96 99 98 99 99 99 99 93 96 88 84 84 86 80 79 80 82 88 83 70 68 71 75 76
96 76 80 92 94 93 92 82 71 68 63 50 57 61 99 97 96 81 68 76 72 71 67 71 76 79 84 86 90 79 84 83 78 70 76 71 70 71 71 72 82 90 77 66 59 60 72 69 74
99 76 84 86 86 86 93 66 62 53 54 56 53 45 86 94 94 81 74 72 70 70 66 62 61 62 69 72 72 70 66 64 63 62 62 64 65 71 70 69 72 72 65 59 68 74 77 77 79
92 93 94 84 84 90 84 63 68 57 55 52 47 40 53 92 99 77 77 72 72 71 69 63 62 58 58 61 66 66 66 62 59 58 56 52 56 62 63 68 78 73 66 63 76 82 87 85 84
90 95 93 91 88 92 88 74 75 61 60 49 55 58 51 59 72 83 85 80 69 63 66 68 64 56 49 53 57 60 60 59 54 50 53 57 70 72 74 70 67 77 77 63 69 88 85 86 87
90 95 92 80 88 73 73 82 75 58 55 53 61 62 62 50 63 72 73 69 68 66 67 67 65 62 55 50 58 56 49 48 49 53 63 70 71 75 76 73 81 78 90 76 67 73 79 78 77

GFSSGP_700_rhum_111.txt.gz
RH
11 12 13 71 73 71 66 73 51 43 43 46 47 58 55 57 63 57 51 53 47 36 20 15 16 15 15 14 14 14 15 15 14 12 11 38 36 76 91 80 10 9 16 17 16 17 19 21 24
11 16 13 58 87 98 83 75 53 42 40 42 53 53 58 54 64 58 52 46 46 33 21 17 18 16 16 15 15 16 16 16 14 13 26 37 62 89 85 17 8 16 18 16 18 20 22 24 22
13 21 16 46 95 99 90 80 50 38 43 40 43 53 54 51 58 57 55 54 42 27 20 21 19 17 16 16 16 17 16 16 30 48 62 50 77 88 31 9 17 17 17 19 21 22 20 18 18
18 19 30 39 69 84 97 88 52 37 40 43 41 50 53 66 48 52 52 57 57 23 20 22 21 17 17 17 18 16 16 20 48 59 57 45 60 22 9 18 18 17 20 21 19 17 17 18 19
20 33 56 52 45 72 91 84 61 55 42 42 49 41 49 52 59 53 56 53 58 23 21 24 21 17 17 18 18 17 19 19 28 34 18 14 10 10 18 18 18 22 20 17 17 16 18 24 28
51 55 89 100 55 31 78 71 72 68 52 42 45 59 44 56 61 62 71 66 60 24 22 24 21 18 18 19 18 20 19 19 17 14 12 11 14 19 18 19 23 21 17 16 17 24 28 28 29
32 64 81 93 89 48 42 56 84 78 58 46 40 42 54 48 52 66 67 70 55 26 25 24 21 19 19 19 20 20 20 18 16 14 15 17 19 18 21 22 19 17 17 25 28 28 29 31 32
36 69 100 96 88 54 50 41 63 88 70 48 40 43 47 58 56 59 80 77 44 28 28 24 21 20 19 20 21 20 19 18 18 18 18 19 19 21 22 18 15 21 28 27 29 30 32 33 31
49 72 100 72 76 58 63 65 43 88 91 63 55 48 48 46 62 62 88 92 61 49 29 26 23 21 21 21 22 21 20 20 19 19 18 19 21 20 17 16 21 26 32 36 40 42 43 41 40
70 79 76 39 55 86 93 83 89 66 92 72 60 46 54 47 66 66 67 93 76 76 36 26 25 22 22 22 22 20 19 18 18 18 20 22 20 17 15 22 25 32 45 50 51 52 51 51 50
76 67 42 42 52 67 92 89 88 82 73 93 68 72 72 52 84 75 70 98 83 77 44 31 27 24 24 23 22 20 19 19 19 21 20 19 17 16 22 26 31 36 46 49 50 50 49 48 48
62 53 44 37 56 87 95 94 89 92 47 85 75 82 62 74 81 86 77 98 99 91 65 36 32 28 26 26 23 21 19 19 19 20 19 17 16 23 30 35 41 42 44 46 47 48 47 47 47
54 50 55 52 67 60 84 95 84 85 61 61 83 94 71 72 89 91 85 82 100 91 63 43 32 32 28 27 24 20 19 18 18 18 17 17 24 32 38 41 46 48 48 49 48 48 48 48 46
66 75 85 83 85 78 67 81 91 77 75 65 96 84 80 68 70 87 90 82 97 92 79 65 46 36 31 28 26 21 19 19 18 16 17 24 35 39 43 47 49 50 50 49 49 48 48 48 48
69 97 98 79 81 76 73 68 77 68 94 86 91 90 86 69 81 99 81 84 81 77 62 74 67 52 38 31 26 22 20 18 17 17 22 33 38 44 48 49 50 50 50 49 49 48 48 47 48
62 74 79 74 72 74 77 63 52 72 89 92 59 66 79 64 85 99 95 83 83 82 71 72 64 48 45 36 24 22 20 18 19 20 30 39 44 47 49 50 50 50 50 49 49 48 48 48 47
75 67 58 62 76 68 85 82 79 84 88 88 83 100 81 72 84 98 98 99 96 86 80 75 51 49 51 35 27 21 22 20 21 26 36 43 46 48 49 50 50 50 50 49 49 48 48 48 48
79 97 78 83 91 88 98 72 95 95 92 88 84 100 93 76 84 90 97 99 79 92 75 86 72 49 49 50 32 27 24 22 24 30 39 45 48 49 50 50 50 49 49 48 48 47 47 48 48
91 99 96 60 76 99 96 58 69 74 96 89 98 99 98 82 82 83 92 97 98 95 79 70 67 64 40 54 32 25 21 23 26 32 39 45 48 49 50 50 49 48 47 47 46 46 48 51 54
93 98 92 71 68 98 91 67 64 99 90 98 90 96 98 86 78 74 89 86 97 96 90 83 74 58 45 43 46 30 25 26 28 33 39 45 47 49 48 47 46 45 46 48 50 53 64 71 75
96 96 93 90 98 98 84 94 98 100 99 91 96 91 98 98 79 71 80 85 94 92 88 71 69 61 64 62 56 37 28 30 32 33 38 43 44 46 47 51 60 69 69 68 71 77 85 93 95
98 95 97 85 97 98 98 97 99 100 91 84 73 79 99 100 75 73 79 85 96 96 99 93 96 82 70 71 75 53 37 34 33 35 38 43 56 65 65 75 77 81 82 85 94 97 99 99 83
97 97 98 99 98 94 98 87 100 99 86 88 87 91 99 100 74 74 81 82 78 91 96 100 100 98 100 84 91 78 74 78 53 53 58 70 76 88 85 86 82 87 84 98 99 87 68 83 83
99 97 98 85 93 97 98 77 88 93 96 99 88 98 98 97 78 89 84 81 83 74 95 94 98 99 96 91 93 92 97 98 82 71 75 78 84 85 90 89 95 98 86 78 75 85 89 85 80
100 90 87 87 89 96 95 78 81 91 96 90 98 96 100 97 91 86 81 74 82 92 97 99 99 100 99 100 95 98 99 100 99 92 91 94 86 96 95 93 92 86 87 91 83 78 72 65 70
93 89 92 87 92 93 82 90 78 79 72 78 94 99 96 100 98 94 96 93 92 92 99 100 95 90 97 95 91 100 100 98 100 100 100 100 98 95 97 87 83 79 84 87 75 67 63 74 72
84 86 98 90 88 82 87 74 69 76 61 64 79 95 100 100 90 83 86 86 82 77 76 83 93 98 100 97 98 100 99 97 99 97 98 80 83 84 72 68 73 85 82 75 70 68 75 75 76
72 90 96 80 85 91 74 81 87 71 60 53 59 87 100 100 96 88 87 86 77 76 72 69 67 70 76 81 89 94 95 94 89 86 88 76 70 65 64 74 81 80 74 68 62 54 51 54 57
98 99 97 91 81 82 78 96 97 75 69 59 65 77 97 100 97 94 89 85 73 69 73 75 74 70 64 60 67 74 76 77 83 79 72 64 60 59 64 73 70 72 67 57 56 52 47 48 54
97 100 97 83 84 80 79 95 93 67 65 71 67 71 80 87 98 98 85 95 84 79 74 78 79 73 67 59 51 53 62 66 66 65 64 62 64 66 68 71 67 64 61 63 64 67 66 59 60

GFSSGP_700_rhum_114.txt.gz
RH
6 6 9 13 64 73 55 51 57 48 53 51 59 63 64 67 74 62 56 53 51 51 39 32 15 13 13 13 13 13 13 13 12 9 18 58 67 65 92 79 8 11 17 16 16 17 18 20 21
8 8 11 39 71 53 48 51 60 60 50 44 47 54 58 69 75 63 53 50 51 51 42 28 17 15 14 14 14 13 14 14 13 11 11 48 42 84 89 23 9 18 17 17 18 19 20 20 17
10 11 15 59 71 54 39 49 63 64 58 38 43 54 61 69 68 61 55 54 49 51 39 26 19 16 16 14 14 14 15 15 13 12 25 42 58 94 77 8 16 17 17 19 20 20 17 16 16
14 15 18 57 49 49 49 46 70 75 53 42 40 52 62 68 63 64 61 57 57 48 39 27 25 19 18 15 15 16 16 15 16 31 55 49 92 90 11 13 17 18 20 21 19 16 16 16 16
20 21 68 64 50 46 46 54 64 65 61 54 48 50 52 55 56 64 57 57 54 58 38 30 31 21 18 16 16 17 16 19 54 68 56 74 92 31 11 19 17 20 21 18 16 16 17 21 24
26 34 78 64 55 51 50 53 77 65 60 66 54 51 53 58 50 54 68 69 60 57 42 35 34 23 18 17 18 17 19 28 55 61 30 56 27 10 19 18 21 22 16 16 15 20 25 24 24
25 86 69 61 56 56 60 60 69 66 71 74 70 52 51 53 51 56 62 84 83 74 45 40 36 24 21 19 20 19 20 32 46 22 16 12 11 20 18 21 23 18 15 17 24 26 27 28 26
40 100 90 73 64 60 61 67 63 68 76 88 81 64 58 67 53 56 62 86 85 92 71 47 38 23 21 22 21 22 21 22 18 15 11 12 20 19 22 23 18 16 22 25 24 24 29 29 27
37 98 88 72 64 61 68 68 71 68 81 96 96 80 63 66 58 70 66 72 95 97 75 69 40 25 20 22 23 23 21 17 14 13 15 20 20 24 25 18 16 24 24 26 30 32 35 35 30
79 95 77 68 66 65 67 85 88 85 67 86 88 67 59 51 62 69 63 50 87 100 87 75 45 27 22 22 23 22 19 16 16 16 19 20 23 25 19 17 24 26 34 41 44 44 42 42 40
92 92 72 75 78 84 82 88 91 92 89 80 84 78 72 48 62 65 64 65 77 96 86 85 60 30 24 23 23 21 19 18 18 19 20 22 24 20 17 24 29 39 47 49 49 48 46 44 44
73 47 85 67 90 86 83 90 90 93 94 96 91 59 84 50 50 77 89 78 75 99 95 85 60 30 26 25 24 22 20 20 19 20 22 23 20 17 23 29 39 46 48 49 48 48 45 44 42
75 67 84 78 55 42 71 68 90 92 81 80 94 83 92 79 51 72 94 83 72 82 99 89 66 33 27 26 24 22 20 20 20 21 23 20 17 21 28 39 44 48 48 49 49 49 48 47 46
96 94 95 99 73 60 97 91 98 72 60 74 81 62 91 95 93 70 88 99 82 85 100 92 76 40 30 26 25 23 20 20 21 23 22 18 22 29 37 43 47 48 49 50 49 49 49 49 49
90 90 90 61 58 74 98 98 94 36 62 80 67 59 71 94 100 68 97 98 88 88 100 88 72 39 33 28 28 24 22 22 23 23 20 19 30 39 45 48 50 50 50 50 50 49 48 48 48
100 96 90 61 85 64 96 82 88 79 84 74 91 56 52 98 99 90 98 100 96 88 78 93 69 49 37 31 30 27 24 24 24 23 19 28 40 47 49 50 50 50 50 50 49 49 49 48 48
99 93 65 61 70 90 100 94 89 74 83 63 79 81 48 64 96 97 83 88 100 98 92 78 75 65 50 35 32 30 27 26 26 23 22 36 45 49 50 51 51 50 50 50 49 49 49 48 48
71 93 83 75 76 98 99 93 91 66 47 62 70 81 61 58 84 81 86 88 100 98 87 72 58 64 63 45 34 31 29 28 28 23 26 40 47 49 50 51 51 51 50 50 49 49 48 48 47
100 100 100 88 90 95 91 96 91 75 87 88 74 88 80 54 70 70 90 89 100 98 91 68 50 64 64 52 43 31 29 28 29 26 28 41 48 50 51 51 51 51 51 50 48 48 48 48 51
100 100 96 88 82 96 90 98 89 84 66 75 73 82 84 54 50 78 97 100 96 99 92 80 60 36 65 61 57 48 30 29 29 30 28 40 47 49 50 50 50 50 50 48 47 48 50 56 74
98 97 99 99 98 97 100 98 96 81 73 72 65 91 96 77 60 81 86 98 94 99 99 98 83 68 60 61 63 60 38 36 28 29 29 37 43 46 48 49 50 50 47 48 51 61 66 80 88
98 97 98 98 98 98 92 85 95 80 98 68 69 64 66 74 79 81 76 88 99 97 99 99 99 73 55 59 41 40 52 31 30 28 29 34 40 44 47 48 48 50 66 79 82 87 83 94 77
96 96 95 98 95 96 94 93 98 99 99 81 71 58 62 68 64 74 71 81 95 100 98 100 96 81 64 66 62 56 70 58 34 30 32 35 40 47 50 53 62 73 89 93 97 97 90 72 62
96 97 99 98 98 97 99 87 98 99 99 86 82 59 53 50 52 69 73 74 94 100 93 99 99 98 98 84 81 74 78 76 52 39 37 39 53 65 68 74 76 82 91 99 97 76 74 64 76
86 93 82 94 94 95 99 76 97 99 96 90 84 69 81 96 99 81 64 76 91 99 97 96 94 98 95 100 91 79 86 92 76 76 65 64 70 74 93 90 92 97 99 94 85 89 80 76 73
100 100 93 90 91 94 97 89 98 94 84 90 100 100 100 100 100 96 89 81 97 98 98 88 86 99 99 98 99 100 100 97 100 99 83 94 83 94 96 83 99 98 95 99 92 88 77 68 64
88 98 100 97 77 74 98 90 88 93 86 95 92 99 99 98 93 99 89 89 89 94 84 81 71 94 99 98 98 99 98 92 100 100 100 100 100 100 98 88 88 98 94 93 89 72 69 66 68
94 97 98 90 75 88 89 97 98 83 79 82 96 99 98 99 97 100 94 89 92 89 89 96 95 93 99 99 99 97 76 75 97 99 97 100 98 97 99 85 95 87 84 82 79 74 67 63 66
98 99 98 91 84 66 76 96 98 95 88 78 96 99 99 99 97 95 93 97 96 88 91 83 86 91 96 96 93 93 86 83 84 94 95 88 83 87 85 83 80 85 86 81 80 74 66 58 52
91 100 99 87 76 75 73 96 94 84 81 87 82 92 99 99 100 87 79 71 69 79 87 90 89 82 80 73 63 73 82 86 89 88 91 93 88 80 76 87 92 91 86 83 75 67 68 66 55

GFSSGP_700_rhum_117.txt.gz
RH
7 5 4 8 77 62 46 40 38 35 32 32 39 50 52 51 57 74 65 62 55 50 50 43 27 16 13 13 12 12 17 11 11 40 71 79 71 72 87 73 8 12 16 15 16 17 18 19 18
8 7 7 42 64 51 38 35 36 36 43 41 42 46 54 55 58 65 72 56 57 53 51 49 38 20 16 14 13 12 12 12 12 11 50 66 72 74 90 47 9 16 15 16 18 19 18 17 14
9 10 23 57 63 55 35 31 34 36 46 45 46 47 51 56 65 75 72 57 56 54 51 50 37 20 18 14 14 13 13 14 13 11 19 46 56 89 89 12 15 16 16 18 19 19 16 15 15
12 13 18 66 41 38 45 36 31 40 50 51 48 45 40 46 53 64 62 64 63 56 53 47 35 24 19 14 14 14 15 15 14 12 12 60 43 96 63 11 19 16 19 20 19 16 15 15 17
15 58 77 52 46 40 37 34 38 39 52 54 53 46 41 50 71 81 57 63 62 61 57 46 35 27 22 16 15 15 16 16 14 13 48 53 65 94 16 17 18 19 21 19 16 17 16 18 23
63 44 67 55 48 41 37 35 33 39 43 50 51 46 43 44 64 60 62 52 63 64 56 57 39 33 25 17 15 16 17 16 28 57 64 60 89 81 10 19 19 22 20 16 16 18 23 22 22
55 78 63 49 43 40 40 40 41 38 45 49 46 50 49 44 66 63 59 55 62 74 74 67 58 48 31 18 16 18 18 26 69 73 66 86 93 22 19 19 23 22 17 16 19 24 24 24 24
86 86 69 59 53 50 47 45 45 48 44 48 47 50 58 49 74 65 58 63 49 74 100 82 65 64 35 20 18 21 25 44 71 77 61 85 38 14 19 22 23 18 16 22 26 27 27 27 26
56 89 82 72 62 52 48 48 49 49 53 52 51 57 65 63 67 97 67 66 54 76 98 99 69 70 40 21 24 50 36 52 70 63 44 38 12 20 21 24 18 17 26 27 29 30 28 27 25
95 85 70 65 61 56 52 50 48 52 54 52 53 63 90 86 81 76 81 70 55 56 88 99 79 78 49 25 47 39 43 56 67 35 21 12 20 21 26 21 17 25 28 32 36 38 35 32 28
100 99 82 74 67 66 66 65 62 60 65 77 54 54 82 73 97 71 80 79 63 59 86 100 82 80 61 27 47 50 48 58 36 25 14 16 21 24 26 18 22 26 36 43 45 46 44 43 40
96 88 83 79 79 83 83 77 70 68 72 69 79 79 62 87 98 73 66 98 83 87 70 95 95 77 72 28 54 61 58 45 18 20 14 21 22 26 19 21 27 37 46 50 49 49 47 43 42
82 81 82 79 79 81 84 84 82 78 72 67 74 74 97 88 99 92 72 95 98 76 57 84 99 83 74 26 46 59 58 30 18 17 18 21 24 24 17 28 37 48 49 49 48 47 48 47 46
86 84 83 78 84 89 88 85 90 81 50 76 75 90 72 90 96 100 88 78 97 98 84 76 100 99 80 30 32 44 21 18 18 17 20 21 26 19 26 36 49 50 50 49 50 50 50 50 49
85 82 79 76 74 77 87 87 85 23 78 76 78 81 84 86 74 99 99 96 94 94 99 86 99 97 81 30 28 25 20 18 19 20 21 28 24 19 31 46 48 50 51 51 51 51 50 50 49
94 90 84 63 58 54 68 84 40 77 87 76 72 93 92 93 70 64 98 96 99 99 99 79 100 96 74 34 28 24 22 20 20 20 22 26 20 27 39 46 50 51 52 51 51 50 50 49 48
82 83 63 51 44 45 56 90 65 80 80 78 72 70 87 91 85 59 98 86 100 95 100 92 94 97 74 44 29 25 22 21 20 22 25 21 19 31 46 50 51 52 51 51 51 50 49 49 48
66 78 67 59 52 73 81 79 86 78 79 73 70 72 87 98 68 67 93 80 98 97 99 99 88 95 75 55 32 27 23 21 22 25 26 20 25 42 50 52 52 52 51 51 51 50 49 49 48
86 82 84 69 64 65 65 84 78 83 91 87 82 90 95 100 70 63 77 81 87 77 94 100 98 98 68 60 36 32 24 23 25 28 27 21 33 44 51 52 52 52 51 51 51 50 49 49 48
79 75 71 72 72 78 77 73 72 89 79 87 96 91 73 73 73 57 62 87 78 76 95 100 96 78 77 59 42 42 32 26 27 29 26 23 36 46 50 52 52 52 51 51 51 50 48 48 50
86 90 88 91 85 94 96 77 71 82 93 91 88 78 69 61 80 35 45 80 73 81 83 98 99 93 74 76 54 46 42 29 29 30 30 25 37 47 50 52 52 52 51 51 50 49 49 56 62
96 91 95 97 98 92 81 74 82 76 88 95 95 73 57 95 83 50 42 65 78 69 74 99 98 99 76 92 78 65 46 37 29 29 28 25 35 45 49 50 51 50 50 51 49 61 80 86 87
84 98 98 98 98 99 92 97 90 85 90 94 92 84 84 98 89 49 53 59 81 69 69 99 100 98 80 88 82 82 81 54 40 32 31 32 32 39 46 47 48 49 50 52 77 84 91 68 98
99 98 97 94 88 92 83 92 98 98 97 92 98 98 100 61 72 61 63 66 80 57 67 98 98 100 98 85 76 76 62 56 38 35 38 36 33 33 38 42 46 49 56 74 84 95 97 84 84
99 99 97 97 97 81 98 96 98 97 98 99 99 97 98 65 51 44 54 62 72 77 85 99 100 100 100 84 83 74 72 60 67 52 42 38 38 36 40 43 53 69 85 87 89 97 64 80 82
95 100 97 95 92 80 74 90 98 98 97 99 99 100 100 65 44 42 44 54 75 78 88 97 92 100 100 98 97 94 82 82 72 53 62 50 47 49 50 59 78 82 89 94 98 82 80 90 87
80 100 98 98 93 80 98 97 98 98 98 99 100 100 100 99 97 78 68 66 69 80 93 97 98 100 99 100 98 99 95 81 80 99 84 77 64 74 73 79 82 98 99 98 95 83 91 90 77
97 98 99 91 93 91 93 96 97 98 99 97 99 100 100 100 100 98 86 75 72 86 90 93 97 96 97 93 96 98 100 100 97 100 100 94 89 91 96 94 84 98 91 99 80 94 88 79 67
95 98 97 97 77 93 83 96 98 98 98 99 99 100 99 100 100 100 100 93 90 89 78 80 98 97 99 98 100 100 94 80 72 75 91 100 100 99 98 99 98 98 93 94 96 91 79 70 64
98 99 100 98 71 84 71 97 98 99 100 98 99 99 99 99 100 100 100 99 95 96 78 73 86 98 100 99 96 97 96 86 79 75 87 91 93 99 100 95 95 89 91 96 94 84 79 75 67

GFSSGP_700_rhum_123.txt.gz
RH
7 6 5 6 10 18 9 9 10 21 24 21 32 35 35 34 39 46 50 56 55 54 58 57 57 38 16 14 13 14 28 26 18 62 68 69 77 80 77 46 10 12 12 27 57 24 16 17 18
7 7 7 11 12 55 11 7 5 11 28 38 37 36 34 32 36 44 52 57 59 58 54 54 54 52 24 17 14 15 28 33 16 48 70 75 70 70 69 45 11 12 12 50 37 16 16 16 14
8 8 9 12 20 13 11 13 26 40 36 32 36 37 36 33 33 42 51 59 66 64 58 50 49 55 44 20 16 16 23 32 14 32 53 75 67 57 70 50 13 13 12 37 16 16 14 13 13
8 10 12 33 10 8 8 11 33 40 36 34 34 35 38 37 41 41 49 53 60 64 62 53 53 56 50 34 17 17 27 26 15 24 50 68 64 55 76 41 14 14 13 16 17 14 13 13 14
10 11 18 27 12 11 13 16 28 38 35 34 40 44 39 38 42 44 50 53 58 62 65 61 56 58 53 39 21 20 23 18 20 14 42 51 55 56 74 36 15 15 16 16 15 14 13 14 16
12 12 34 43 19 11 10 15 36 40 36 34 43 47 46 37 40 44 64 62 62 60 60 65 60 60 56 41 25 30 40 25 22 21 20 40 52 61 75 32 16 16 17 15 15 15 15 18 17
11 22 21 23 29 24 22 41 43 37 35 32 36 47 49 44 42 46 55 65 66 67 49 56 64 59 61 48 30 47 39 19 23 38 34 23 70 61 87 20 17 18 19 15 15 17 20 17 18
13 42 64 61 57 42 29 48 46 42 38 31 33 35 52 50 46 47 49 66 62 70 65 49 60 64 65 59 41 39 28 18 18 52 55 42 71 76 82 17 18 21 19 15 16 22 21 20 20
23 58 71 60 47 44 36 44 41 45 44 36 29 38 47 50 47 54 65 67 62 72 72 57 54 55 67 63 55 34 30 17 19 24 51 66 74 84 72 18 19 22 18 17 24 24 25 23 22
38 52 74 56 58 58 67 64 55 45 42 41 27 35 41 46 46 55 70 74 49 90 74 75 53 57 72 70 68 48 22 18 19 19 53 78 76 82 59 18 21 20 18 24 26 27 25 24 22
60 54 50 49 48 70 71 65 62 59 49 39 44 31 32 46 45 45 54 77 65 50 90 78 71 64 71 79 79 63 28 18 20 26 68 83 72 94 31 19 21 17 19 26 26 24 23 21 20
77 81 77 72 66 65 76 78 74 69 53 44 39 46 20 40 46 45 50 59 74 59 53 93 75 76 76 74 98 78 48 25 21 67 91 85 70 92 19 20 21 17 23 28 27 25 24 23 22
91 92 92 91 90 83 79 62 61 58 57 55 41 34 41 21 46 45 50 54 62 63 62 64 88 80 80 76 95 97 76 32 37 78 92 86 72 82 15 21 22 18 28 28 28 31 35 34 32
65 70 74 77 76 65 75 59 62 49 47 40 36 28 26 40 28 45 54 55 57 68 63 65 88 80 99 91 94 85 97 38 62 84 92 93 66 47 17 23 20 23 29 31 36 41 39 38 41
72 64 54 39 30 41 46 50 59 51 43 39 33 24 31 26 32 40 54 58 56 61 63 57 82 92 89 100 100 96 94 38 77 83 86 99 60 21 20 26 19 27 30 34 40 42 43 46 47
60 60 53 30 52 56 71 75 66 54 50 49 45 32 20 22 27 30 37 60 64 59 64 69 81 94 95 95 94 96 97 50 78 86 97 90 51 15 22 26 20 29 31 36 42 46 48 50 50
59 66 60 59 52 58 61 62 51 56 52 52 55 53 38 22 24 24 28 48 65 63 54 64 75 91 99 95 86 92 99 68 86 93 99 86 42 14 22 27 22 29 34 40 46 50 51 50 50
68 77 77 73 52 62 68 53 42 44 47 54 60 55 53 52 34 28 23 28 53 65 56 54 62 74 98 100 93 89 100 88 84 85 98 70 28 16 22 27 26 27 36 45 51 51 51 51 50
88 91 88 33 57 64 56 72 57 47 48 43 48 58 60 52 48 53 30 26 60 76 59 63 59 83 96 99 98 95 98 97 78 88 99 60 27 18 23 26 22 26 42 50 52 52 51 51 50
93 84 64 53 58 76 73 64 61 41 32 30 31 47 62 62 67 75 56 72 87 69 52 55 58 81 93 98 100 99 88 93 73 88 86 56 25 19 24 26 20 31 48 52 53 52 52 51 50
85 83 66 80 68 68 81 63 46 34 50 54 43 61 73 76 89 72 62 79 70 61 40 42 48 62 73 97 100 98 99 90 70 73 79 47 26 20 26 24 22 43 52 53 53 52 52 52 50
81 70 85 90 99 99 90 85 63 43 51 52 39 52 74 82 88 73 69 69 63 75 57 36 32 46 90 100 100 97 90 89 64 62 57 42 21 21 29 24 29 49 54 54 53 52 52 52 51
90 98 100 100 97 98 91 99 70 67 70 67 56 61 71 76 67 78 70 68 83 89 54 22 30 79 74 100 100 97 100 82 52 42 33 26 20 22 31 24 34 50 54 54 53 53 52 52 52
99 95 98 100 98 98 76 87 75 87 92 72 76 78 89 90 83 85 70 76 95 86 69 62 82 86 78 97 99 99 100 76 45 29 25 22 21 25 34 26 35 48 54 54 54 53 52 52 52
98 100 92 95 98 92 91 98 79 96 100 87 77 86 85 78 85 77 97 99 93 75 82 75 100 85 77 89 100 100 98 65 40 27 22 21 22 30 36 27 35 45 52 53 53 53 52 51 59
92 98 97 96 96 97 97 97 97 98 98 98 93 83 78 84 95 94 99 94 85 88 83 80 89 81 73 84 100 100 99 92 63 37 28 25 27 38 37 28 33 42 48 50 51 50 51 58 74
93 98 99 98 96 97 84 96 97 99 98 99 99 100 88 84 94 96 89 83 97 72 90 95 79 72 85 74 99 98 99 98 90 69 44 36 39 41 45 38 33 37 42 45 47 48 64 83 77
98 100 97 97 96 96 90 96 98 97 98 99 99 92 87 96 99 86 81 78 81 93 100 90 75 85 75 81 79 89 98 99 99 94 81 55 39 42 45 42 42 38 40 41 47 61 81 84 91
97 98 99 100 97 100 96 96 98 98 98 98 98 100 97 85 75 72 74 78 90 100 96 84 68 82 80 95 92 99 100 99 100 98 96 98 83 58 59 45 45 44 45 47 50 68 84 87 91
98 96 91 90 91 96 97 98 98 98 98 98 99 99 99 86 63 69 97 98 99 97 87 78 76 85 88 85 99 100 97 100 100 100 100 98 94 78 55 52 55 57 56 57 63 90 95 76 91

GFSSGP_700_rhum_126.txt.gz
RH
6 6 6 6 11 5 6 9 11 18 20 26 27 25 39 38 38 42 42 46 57 60 64 64 58 55 37 16 14 15 26 35 25 61 49 58 68 81 76 44 11 12 11 22 30 14 14 13 15
7 7 7 10 10 10 8 5 6 11 36 42 41 34 36 38 36 35 38 47 55 61 62 61 57 52 53 29 14 13 23 32 27 60 65 66 76 80 76 54 13 13 17 47 28 15 14 13 14
7 7 8 9 10 8 8 10 18 17 28 35 41 40 38 38 39 41 45 48 57 64 64 63 57 59 53 49 21 13 16 30 26 48 70 72 70 68 68 47 14 14 21 34 16 16 14 12 12
8 8 9 13 8 9 9 11 15 34 40 38 37 37 38 41 41 42 42 46 47 59 65 65 62 56 62 52 36 17 15 25 28 26 56 69 70 61 61 48 17 14 19 17 16 14 13 12 13
8 9 11 13 10 10 10 9 10 25 37 39 36 38 41 45 43 42 44 48 50 50 61 63 64 64 61 56 41 23 16 25 24 19 50 62 70 61 53 58 16 15 15 16 15 14 13 13 15
10 11 16 21 10 11 12 12 22 24 32 36 36 38 46 47 45 49 54 46 54 54 55 60 66 63 66 58 45 27 19 25 24 18 44 54 62 63 60 65 17 16 16 16 15 14 14 16 18
11 12 15 20 13 12 11 11 12 22 32 36 36 37 46 49 50 52 60 60 52 52 64 61 62 66 66 65 56 33 34 31 35 23 33 51 57 56 63 65 20 16 18 15 14 16 18 17 19
11 13 18 17 14 12 11 13 18 22 22 34 36 36 44 48 50 56 61 68 67 60 60 63 68 64 65 65 64 50 45 54 40 26 28 37 55 61 58 69 26 17 19 15 16 20 18 18 20
12 20 19 22 23 20 17 16 25 40 34 28 34 36 40 49 49 53 54 57 65 68 64 64 72 74 66 63 67 66 51 58 52 28 38 44 39 74 63 67 26 17 18 16 17 23 19 20 20
18 19 25 27 30 27 21 18 20 40 48 30 28 34 36 49 46 50 52 49 54 60 77 72 73 80 71 65 68 66 64 51 36 26 31 41 48 76 80 56 22 18 18 15 21 22 21 20 23
28 24 26 23 28 35 33 26 38 24 25 40 28 31 31 39 48 49 50 51 51 53 67 85 77 87 80 68 68 72 70 59 38 22 28 38 52 76 86 49 24 20 17 15 20 20 21 20 23
41 42 39 44 52 57 57 58 41 39 26 22 31 29 29 30 38 42 45 50 52 54 58 63 75 86 88 84 89 88 84 74 49 22 23 32 55 78 81 51 22 21 17 18 23 21 21 20 19
48 36 49 57 54 50 46 38 38 27 33 36 23 21 22 22 31 38 39 43 51 58 55 60 72 70 91 82 93 100 100 89 73 39 19 30 66 84 76 50 21 22 17 21 22 21 21 21 21
49 50 52 55 53 42 49 31 43 31 26 25 25 23 18 15 18 28 32 38 44 53 64 59 59 65 83 94 84 98 100 100 94 48 23 23 78 86 82 44 21 23 17 22 24 25 25 29 29
63 59 51 38 28 37 41 26 25 20 22 21 25 20 17 15 11 18 29 31 40 46 54 64 62 57 61 86 91 85 87 100 98 62 39 32 84 86 90 34 22 24 19 24 24 31 34 33 40
53 48 40 24 28 33 47 25 23 19 26 31 36 30 21 14 13 10 18 29 36 48 48 55 65 66 62 57 95 99 96 86 96 70 56 47 86 88 87 27 23 24 20 22 26 35 40 44 48
47 44 44 32 32 42 47 37 24 26 33 33 40 38 33 28 17 10 12 19 28 43 54 51 55 62 64 56 63 100 98 99 97 94 64 69 85 92 82 24 24 25 22 22 32 38 44 50 51
64 68 58 51 40 61 59 46 39 41 47 45 34 24 20 22 24 15 10 16 21 26 52 55 51 51 63 67 65 98 100 100 98 99 73 77 94 99 82 20 25 26 23 26 38 43 50 52 52
57 59 64 43 56 74 62 61 38 44 53 48 29 20 19 19 26 28 16 14 20 28 37 57 54 52 55 62 66 79 88 95 92 99 86 77 94 89 79 19 25 26 22 28 41 48 52 52 51
69 76 56 65 65 86 80 50 49 35 34 28 23 24 27 28 29 31 30 19 25 34 39 39 46 51 52 56 64 66 78 91 87 95 98 91 88 99 67 20 25 27 23 38 47 51 52 52 52
73 84 72 80 84 84 86 60 32 28 32 33 41 50 50 36 34 42 52 44 32 43 35 41 45 41 55 55 54 63 66 91 91 97 81 99 90 97 68 22 24 26 24 45 48 52 52 52 51
85 77 85 98 100 96 96 89 46 42 43 52 58 56 48 39 42 38 59 60 38 28 22 22 25 21 33 44 43 53 56 88 96 93 100 90 90 98 73 27 24 27 23 46 52 53 53 52 52
83 95 98 100 99 99 90 100 53 60 67 60 69 64 47 52 60 69 56 63 72 46 31 44 28 51 36 29 44 56 53 88 86 82 86 97 86 100 75 29 22 29 25 48 54 54 53 52 52
94 99 100 100 99 97 81 91 67 88 99 77 76 63 58 49 67 86 70 69 65 65 51 70 68 81 60 45 52 59 67 96 100 99 92 99 99 96 55 29 23 30 28 49 55 55 55 53 53
98 100 94 90 97 90 80 99 77 92 100 99 96 66 66 60 52 68 76 75 77 83 87 89 91 71 66 58 46 61 76 99 100 99 97 99 89 87 75 29 24 31 34 48 56 56 55 54 53
100 98 98 100 97 92 77 94 85 97 98 100 100 86 73 75 76 74 74 81 88 66 73 89 72 78 83 62 50 87 99 100 98 99 98 89 86 74 78 27 25 36 34 47 57 56 56 55 54
100 99 99 98 93 97 85 76 85 94 97 99 100 98 99 84 76 71 80 69 61 75 89 87 99 95 96 88 90 88 97 100 98 100 97 82 48 37 40 32 35 42 38 50 57 55 55 54 53
100 99 99 98 97 94 80 94 98 90 93 97 98 98 97 80 76 74 71 78 75 92 98 99 99 93 86 83 82 86 100 100 100 98 88 47 32 30 30 32 41 50 44 51 52 54 52 52 52
99 98 99 100 96 97 96 95 98 97 98 98 99 92 96 88 84 89 78 94 98 98 100 100 99 100 100 98 91 78 95 99 100 97 85 45 30 28 30 34 48 51 49 45 49 52 49 53 65
97 97 86 94 90 100 98 93 97 97 98 98 99 97 72 62 68 80 91 97 95 99 99 97 89 97 100 97 94 77 74 86 99 98 93 71 42 38 40 42 46 58 50 53 44 44 45 59 73

GFSSGP_700_rhum_132.txt.gz
RH
6 6 5 4 10 7 7 8 7 12 11 14 22 39 38 38 42 44 53 56 63 61 62 70 64 61 53 36 22 19 20 34 39 26 32 41 44 68 71 51 21 15 13 20 13 13 16 26 42
6 6 6 7 10 7 6 6 8 11 16 12 16 25 34 39 43 41 43 42 58 73 76 73 69 62 54 46 32 22 21 28 39 36 44 52 58 74 73 59 39 18 18 25 15 13 13 16 20
6 6 7 7 7 7 6 8 15 18 21 21 22 24 28 32 36 40 42 44 47 53 64 68 68 66 65 57 44 27 23 30 35 34 49 60 66 74 73 56 45 25 20 18 12 13 13 14 15
7 7 8 9 7 8 9 10 11 21 19 30 34 34 29 29 36 44 43 52 52 55 52 55 67 65 65 64 47 34 26 31 36 36 52 67 68 74 70 54 46 31 22 11 10 12 11 10 11
9 9 8 8 8 7 9 13 14 13 17 17 38 40 34 34 38 41 52 59 50 55 68 59 60 65 64 66 58 43 31 35 41 40 51 63 68 75 66 53 47 40 23 11 9 10 11 10 11
10 10 10 9 7 8 9 13 20 17 19 21 32 41 42 40 41 41 43 44 43 46 56 61 58 60 64 67 66 58 48 37 49 48 52 54 66 74 69 55 50 42 26 13 10 9 10 12 13
9 10 10 9 8 7 8 10 12 13 24 28 34 39 44 51 43 41 44 44 43 59 63 61 60 60 58 60 65 65 57 48 48 52 49 56 66 71 72 61 53 42 29 14 11 9 10 14 16
10 11 11 10 8 8 8 8 9 11 12 15 19 36 38 55 56 50 43 43 46 60 64 72 70 67 64 63 61 67 67 58 48 55 49 55 70 71 73 64 58 45 32 16 12 10 12 15 16
12 14 12 12 11 11 12 12 13 12 12 12 12 14 31 37 49 52 47 44 44 46 61 68 75 74 72 70 72 68 70 70 63 57 51 44 59 72 68 64 59 50 36 19 12 11 14 14 16
14 14 16 15 14 14 14 15 16 15 14 14 13 12 13 27 37 42 50 47 45 44 51 58 66 74 80 80 78 78 76 78 76 60 56 51 38 57 64 64 64 56 39 25 13 11 16 15 17
16 17 17 17 17 16 16 17 17 15 15 14 14 12 12 11 25 38 42 49 47 45 47 64 64 67 74 84 85 80 80 81 82 74 64 62 46 37 41 53 66 63 47 30 14 12 16 17 18
23 21 20 21 21 19 16 16 17 17 15 16 15 14 13 11 10 25 37 42 50 52 47 53 64 69 68 76 87 86 82 85 84 81 75 61 56 38 37 44 58 71 50 32 16 13 16 18 19
28 28 26 26 26 25 24 21 22 18 16 14 14 13 13 12 12 11 23 38 44 55 61 55 55 63 68 70 81 87 84 84 85 84 82 72 54 47 41 49 58 76 55 32 18 12 18 19 21
36 35 37 33 30 29 26 23 26 24 23 21 19 17 15 13 11 12 13 15 36 44 55 62 54 53 54 64 71 84 88 94 84 86 82 82 57 46 43 57 62 83 58 32 20 14 18 21 23
38 35 36 34 33 33 30 25 22 22 20 19 19 19 18 16 13 11 9 14 16 33 42 53 59 52 49 51 65 73 85 95 91 89 90 86 72 49 40 56 70 88 53 32 22 16 15 18 21
52 53 48 40 28 23 22 24 24 22 20 19 18 16 15 14 14 14 12 9 11 19 28 40 48 54 52 50 46 60 81 91 94 98 85 91 88 75 53 47 66 94 56 31 24 18 17 18 20
48 42 32 27 22 22 27 21 17 21 21 18 17 14 12 11 12 12 11 10 9 10 16 26 38 45 49 52 51 44 47 73 89 94 100 92 89 88 76 55 63 97 69 31 28 21 20 22 22
41 41 39 29 33 40 49 37 33 30 38 31 29 23 17 12 11 11 10 9 9 8 8 12 24 34 43 47 53 52 51 51 74 93 92 98 92 85 88 55 50 98 94 38 29 24 22 24 29
49 54 49 36 51 71 46 45 39 41 43 36 32 24 18 14 11 10 11 11 8 6 8 8 8 18 30 40 44 51 52 47 65 74 92 82 85 92 95 81 59 95 95 72 30 28 24 28 32
63 75 56 55 65 78 58 55 48 47 41 39 45 42 24 15 15 18 20 17 15 13 8 7 8 7 12 24 38 42 49 49 48 53 69 98 94 95 99 97 75 89 97 93 34 29 26 30 37
70 80 74 83 74 63 71 50 56 62 59 57 63 55 53 42 27 25 28 31 27 26 18 12 8 9 7 11 20 34 39 49 50 49 60 65 82 99 98 98 91 97 98 100 46 32 28 31 36
87 79 84 94 99 90 83 90 58 63 68 66 58 54 50 48 49 38 34 36 32 28 22 14 12 12 16 12 13 21 33 42 46 41 49 60 69 88 99 99 97 92 99 98 59 32 32 35 42
90 95 97 98 99 97 77 100 60 66 70 73 68 56 54 50 48 41 45 36 27 23 15 22 18 19 26 23 15 16 24 36 45 51 55 54 60 60 90 94 100 95 99 99 99 45 34 36 43
99 92 90 90 97 95 71 84 59 67 78 86 72 58 54 56 56 45 32 28 28 27 22 22 32 24 22 23 18 16 19 29 41 48 52 55 57 63 72 70 76 91 99 98 100 81 44 38 44
94 93 92 98 98 92 78 92 53 73 86 88 75 68 56 50 56 61 35 33 33 39 49 41 31 43 40 32 20 13 16 21 30 40 49 55 56 54 53 59 62 73 92 100 100 93 41 44 47
93 99 96 97 97 91 99 96 72 75 79 78 79 72 70 65 59 61 40 35 33 56 58 64 50 53 61 35 27 18 20 24 22 21 32 44 52 52 52 51 53 57 71 92 99 97 52 42 48
98 98 98 98 99 98 82 78 80 81 82 69 89 86 82 74 65 74 55 42 45 56 67 67 66 69 58 48 30 37 45 38 25 18 28 35 39 46 50 48 46 50 81 94 100 100 68 45 49
98 99 98 98 93 96 77 86 100 88 90 71 84 80 81 77 67 60 62 62 66 65 65 61 64 64 61 52 54 62 47 41 34 27 20 22 28 36 41 42 43 47 67 99 100 99 46 53 48
99 99 86 96 92 96 92 89 96 100 98 95 98 99 73 68 68 70 68 68 67 77 66 57 56 66 80 66 65 64 51 37 27 22 23 29 30 31 28 34 34 47 68 100 100 98 70 46 49
93 92 93 84 76 90 99 77 96 97 99 99 99 100 100 95 83 78 86 79 79 84 82 59 56 56 75 74 73 78 63 43 46 71 59 62 57 44 39 27 37 53 77 100 98 96 66 40 47

GFSSGP_700_rhum_135.txt.gz
RH
5 5 5 4 11 7 6 7 7 8 9 14 24 31 29 37 38 38 50 55 55 52 66 67 67 62 52 36 24 21 24 32 38 25 32 40 46 73 64 46 25 17 18 19 11 18 22 55 53
5 6 6 8 12 9 6 5 6 6 9 9 17 25 38 41 37 34 52 52 58 67 69 77 75 64 55 43 34 23 25 32 40 32 40 49 58 74 68 53 37 21 20 21 11 10 12 19 24
6 6 6 7 8 7 6 6 8 7 10 14 16 20 32 35 37 37 40 47 54 71 78 74 72 69 63 56 43 34 30 29 39 38 49 57 66 74 70 54 42 28 22 17 11 10 10 18 17
7 7 8 8 7 7 8 9 10 11 16 20 24 23 22 30 33 38 38 42 43 45 58 58 66 66 64 65 57 41 28 32 38 38 52 63 70 75 71 55 44 35 24 12 10 10 9 11 10
8 8 8 8 8 7 8 11 13 12 20 25 33 27 22 20 27 30 39 47 47 49 50 54 60 66 68 64 65 51 39 29 37 41 49 66 70 76 70 56 44 39 25 13 10 10 9 9 10
9 9 9 8 7 7 8 10 15 13 16 21 35 34 32 25 25 40 56 50 53 51 56 58 58 63 67 69 65 63 51 45 32 43 48 60 70 76 73 58 49 40 30 16 10 10 10 10 11
10 10 10 9 9 8 8 10 13 15 18 22 24 35 35 36 31 39 48 59 56 49 47 47 57 64 66 69 71 66 62 53 47 45 46 50 57 76 77 64 52 43 33 21 11 10 11 11 13
9 9 10 9 9 8 9 8 8 10 12 17 26 32 34 38 41 41 45 46 50 45 43 45 63 67 72 73 72 69 67 66 55 49 45 46 53 70 77 70 58 50 35 26 13 10 11 14 14
9 11 10 9 9 10 10 10 10 9 9 9 12 20 26 36 44 48 52 50 47 44 53 58 62 65 70 76 76 76 70 69 68 54 56 51 64 69 77 72 64 56 42 28 16 10 11 15 15
13 13 14 14 13 13 13 13 14 14 14 13 12 11 12 14 35 60 59 54 53 47 51 62 68 69 69 71 80 80 76 74 74 72 59 58 48 57 72 75 64 55 50 35 19 11 12 15 16
14 15 15 15 15 15 15 16 16 16 16 16 16 15 14 13 13 28 48 58 54 50 48 50 57 70 73 71 76 80 82 83 80 80 69 59 55 50 54 66 60 54 59 41 24 13 11 15 16
21 20 20 19 19 19 19 18 17 17 17 18 18 16 16 15 13 12 18 37 42 50 49 45 45 53 62 71 75 81 81 83 86 89 84 69 64 57 46 57 60 62 67 45 26 16 13 15 15
30 31 30 28 26 24 23 22 22 21 18 17 16 15 15 16 15 14 12 14 34 39 47 49 46 50 65 68 71 74 77 80 83 88 87 84 70 64 55 50 53 57 73 56 27 19 14 18 17
34 31 31 32 32 29 26 24 25 22 24 25 25 22 20 17 14 13 13 12 12 28 38 45 48 47 48 61 68 69 73 79 83 83 85 87 88 76 59 54 49 52 70 66 30 22 18 21 20
40 40 41 39 38 38 32 25 24 26 25 24 23 21 21 21 20 18 15 12 11 11 18 38 44 47 50 52 59 66 70 74 78 83 84 82 83 84 68 52 50 55 65 80 37 26 19 22 22
54 52 53 50 45 37 36 30 29 27 26 26 26 24 22 20 20 19 19 18 15 11 10 12 33 46 51 51 54 57 64 73 78 83 88 86 82 88 77 56 46 52 66 85 57 29 23 20 26
41 39 34 27 24 21 24 26 27 27 26 21 20 21 21 21 20 19 18 18 18 18 15 10 11 22 41 51 51 53 53 54 73 80 85 87 85 85 85 73 52 51 62 83 79 41 26 21 26
34 37 33 25 28 36 40 25 24 23 30 21 18 17 17 16 15 14 14 14 15 15 16 17 12 10 16 36 48 52 52 49 54 71 86 87 92 85 83 87 74 60 62 76 87 54 31 24 28
30 35 43 46 52 54 46 37 36 30 37 37 37 32 28 22 18 12 10 9 9 9 9 11 14 13 9 14 30 44 50 51 47 47 60 80 84 91 93 88 84 78 60 63 93 64 33 27 28
52 58 56 54 62 71 51 46 42 38 42 42 39 40 32 25 20 14 12 10 8 7 7 7 7 10 10 9 12 26 40 47 49 48 48 58 72 84 87 87 94 98 78 58 94 90 38 31 29
58 65 68 71 71 65 67 51 53 54 59 64 62 55 51 44 31 22 16 16 19 21 19 14 10 9 8 8 8 13 27 36 44 51 53 59 61 76 80 88 93 97 95 74 80 95 77 33 31
69 72 78 82 96 95 88 90 52 56 61 68 68 54 42 38 36 32 28 25 24 22 24 27 23 12 9 8 6 8 10 22 34 44 48 51 56 55 74 92 98 96 100 94 78 96 87 42 33
86 85 86 91 99 100 83 99 56 56 63 68 63 54 47 41 37 34 33 28 23 22 27 32 25 19 12 12 9 6 9 9 18 31 42 48 50 51 54 72 74 96 100 100 91 99 93 80 33
91 90 90 97 99 98 72 85 61 68 80 75 68 56 46 48 40 37 34 33 31 26 22 13 14 12 11 14 13 10 7 10 12 18 33 42 50 52 53 61 66 79 92 100 92 97 98 93 40
92 100 91 97 99 86 76 98 61 70 76 85 72 64 66 74 56 43 38 37 34 19 16 18 19 15 17 19 19 16 13 11 13 14 24 38 45 52 53 58 61 59 90 94 87 99 100 99 83
99 99 96 98 93 88 89 94 66 74 78 77 75 84 96 99 74 54 49 48 43 25 22 21 22 23 29 33 31 32 34 20 18 16 17 34 47 51 53 52 51 53 55 73 66 73 76 100 99
98 92 96 97 100 98 84 81 72 72 83 76 85 98 97 69 63 63 60 45 32 28 29 38 42 37 44 45 45 45 34 31 23 17 17 22 36 47 51 52 51 46 52 58 50 51 58 75 98
99 100 99 99 96 92 75 80 91 92 86 70 83 96 74 74 69 70 66 61 54 45 46 46 53 54 53 63 66 62 55 36 35 40 46 33 25 32 45 47 48 50 49 45 44 41 49 66 98
100 99 99 98 97 92 87 74 97 98 98 98 98 98 98 98 98 92 76 70 69 60 59 61 65 68 75 69 59 61 49 52 39 42 56 59 40 26 26 34 40 44 43 41 41 37 43 60 81
100 95 98 97 87 96 96 75 98 97 99 100 100 99 99 100 100 100 97 93 86 81 83 82 77 70 77 70 80 55 45 64 71 70 72 62 45 32 24 25 28 30 31 32 33 30 39 58 71

GFSSGP_700_rhum_138.txt.gz
RH
5 5 4 4 26 16 20 19 6 7 9 16 25 25 46 41 41 45 40 48 52 53 55 62 63 64 59 43 59 33 32 39 38 27 39 47 58 68 50 34 22 20 21 14 40 47 60 67 55
5 5 5 7 27 17 12 6 6 7 6 7 23 32 32 42 35 34 45 47 52 52 55 64 71 69 57 47 33 40 27 35 39 31 42 49 68 71 57 43 32 24 25 18 11 11 14 27 45
6 6 6 11 20 13 14 6 7 6 7 8 14 26 34 33 35 34 47 51 54 58 62 64 71 66 59 55 45 40 43 33 39 39 46 56 73 76 64 47 34 26 30 12 10 10 11 14 18
6 6 8 12 18 10 7 8 7 7 9 11 12 23 21 30 34 36 42 46 50 72 76 73 70 68 65 65 60 48 35 30 38 39 49 59 68 77 71 49 37 32 25 11 10 11 10 14 13
7 7 8 10 18 7 7 8 10 10 15 20 18 19 16 19 30 35 34 39 45 54 70 62 59 64 65 63 65 56 42 31 34 38 44 61 68 74 73 54 38 35 26 14 10 10 9 9 10
8 8 12 16 15 8 8 9 11 13 16 24 28 26 25 20 23 30 35 42 46 46 53 65 61 64 68 67 68 65 58 43 33 40 45 59 69 74 75 59 45 36 27 19 10 10 9 10 10
9 8 18 12 11 8 8 9 11 14 19 27 23 32 29 27 26 26 30 34 49 58 49 52 61 58 66 71 76 73 64 65 48 41 46 55 60 72 77 67 51 40 30 22 12 9 10 11 13
10 10 10 9 13 18 9 9 9 13 19 20 22 26 27 22 30 37 46 58 56 60 60 53 53 54 62 68 76 79 71 66 63 56 52 60 58 65 76 76 61 46 35 25 16 10 10 12 14
8 10 21 12 9 10 10 10 9 9 9 12 17 18 20 27 33 41 44 54 63 59 60 54 47 47 53 64 70 73 70 70 76 64 59 61 63 64 73 78 72 57 43 28 19 12 11 13 14
9 10 18 11 12 12 12 12 12 12 12 11 10 9 11 19 29 38 46 49 52 59 52 48 48 54 63 67 72 77 74 70 72 72 68 60 62 68 75 79 79 68 54 36 24 15 12 14 15
14 15 14 14 15 15 15 15 15 16 15 15 15 15 13 10 12 17 38 53 54 54 54 49 52 58 62 68 71 78 79 80 76 78 73 67 68 71 59 70 75 72 63 48 30 19 14 16 16
15 15 16 18 18 17 16 16 16 16 16 17 17 17 17 16 14 12 12 31 58 55 55 53 50 63 62 72 70 74 77 80 79 79 82 76 73 63 55 56 66 74 72 59 34 23 16 17 18
22 23 26 28 28 25 23 22 20 18 18 21 21 19 17 17 18 16 15 13 14 31 51 54 50 50 60 63 70 73 76 78 78 83 82 80 75 69 63 55 55 67 71 73 46 27 20 18 20
32 33 33 32 32 32 31 29 25 20 20 21 22 23 24 20 17 16 17 16 14 13 18 37 45 48 46 49 54 63 74 83 83 81 80 82 82 80 69 64 54 52 59 64 70 33 24 18 20
36 37 38 37 37 36 33 26 28 28 26 23 23 22 22 22 23 22 19 15 15 15 13 12 23 36 43 48 49 59 71 78 82 82 82 76 75 83 83 69 59 55 49 54 74 56 29 21 19
45 41 48 43 41 39 36 26 30 27 28 28 27 25 24 24 23 23 22 22 20 15 13 13 12 16 26 37 47 50 62 71 74 78 80 81 75 79 85 85 70 56 50 51 65 79 36 26 19
36 49 38 29 23 22 23 22 25 27 28 28 28 28 27 26 25 25 25 24 22 21 19 15 12 12 13 20 32 40 47 55 65 67 69 77 79 80 78 81 82 60 49 44 55 78 62 30 24
34 28 26 18 28 26 23 17 17 19 19 16 15 15 18 22 24 22 22 24 24 24 22 21 19 16 11 12 17 30 37 42 51 55 63 67 75 80 85 80 86 79 52 47 49 64 79 40 29
21 27 36 42 43 43 33 26 22 27 22 20 25 25 27 32 31 23 19 18 20 22 23 22 21 20 18 15 11 13 21 33 39 48 53 62 67 76 84 83 85 83 76 56 48 59 82 73 34
41 48 61 47 50 55 45 27 33 32 30 35 40 44 46 48 45 35 24 16 13 13 14 16 17 17 16 16 16 12 12 19 34 41 48 54 63 68 80 85 88 89 92 75 63 54 67 87 55
47 54 68 66 61 56 64 58 40 49 51 57 67 60 51 47 42 36 26 20 14 10 9 9 8 8 8 9 10 13 12 11 20 35 42 46 52 58 71 84 83 84 100 95 82 74 56 78 80
59 64 73 72 93 96 93 72 44 48 58 58 62 56 44 38 36 35 32 29 26 18 12 14 16 18 13 7 6 7 9 12 11 15 32 44 48 53 55 56 56 73 93 98 98 97 66 67 78
78 80 85 98 100 99 98 98 64 50 57 65 60 50 48 43 38 33 32 28 26 23 22 20 18 19 21 18 12 8 6 6 8 10 16 34 43 51 57 57 57 62 84 93 98 100 90 77 78
92 96 100 95 99 93 88 93 74 64 68 70 59 57 58 61 52 46 38 32 27 27 26 22 19 19 22 22 15 11 8 7 7 7 9 16 34 42 51 58 65 63 62 94 97 99 100 95 83
96 96 87 87 90 76 74 90 65 68 79 81 68 67 70 72 54 53 53 46 33 30 30 29 22 22 28 33 24 15 10 12 11 10 8 11 20 37 44 55 56 62 59 64 75 90 91 99 93
93 95 94 85 75 64 83 86 90 76 76 81 74 83 80 75 70 60 51 45 41 37 39 38 26 20 16 14 18 15 13 17 15 13 13 16 16 25 42 49 54 60 58 58 64 73 93 98 100
98 92 96 98 97 88 72 76 68 71 82 80 93 94 92 98 82 76 60 56 45 36 38 31 23 19 16 15 18 19 20 26 27 21 20 18 18 19 36 52 53 64 64 63 64 56 59 90 94
98 97 98 98 82 72 60 79 83 81 88 88 87 84 88 92 87 94 75 65 56 41 30 25 24 26 35 40 39 40 41 39 37 32 35 28 24 22 32 43 55 58 61 67 60 50 50 52 82
98 97 99 98 99 82 69 68 71 97 98 97 98 98 98 97 95 95 91 74 61 57 51 47 44 44 44 51 50 43 45 50 50 38 28 33 27 28 42 52 45 53 55 55 54 52 49 48 62
88 97 94 98 92 98 98 78 97 97 98 98 98 98 99 100 100 100 100 100 100 98 89 61 55 53 56 65 68 68 58 66 63 51 51 35 35 30 60 82 72 50 51 57 56 54 53 49 48

GFSSGP_700_rhum_141.txt.gz
RH
5 5 3 5 35 34 22 21 32 29 29 48 38 42 39 41 45 63 52 47 50 58 57 60 60 62 61 55 43 42 38 39 29 30 44 50 71 49 34 28 26 34 31 58 80 80 68 70 57
5 5 4 50 41 22 15 22 24 35 32 8 13 23 30 54 42 44 42 45 43 51 55 60 62 65 60 49 39 32 30 38 33 31 46 50 75 59 42 34 27 34 26 26 25 18 14 26 38
5 5 17 44 24 19 16 17 32 23 6 8 26 23 43 45 37 38 40 48 50 50 53 58 63 67 65 56 43 41 42 35 39 38 47 54 76 70 56 37 36 50 27 11 11 12 12 13 18
6 6 10 27 21 17 24 27 46 8 7 8 24 40 22 23 26 31 39 50 50 53 61 65 67 68 63 63 65 50 41 30 37 38 48 60 74 76 65 44 37 48 21 12 11 11 12 14 16
6 22 32 23 21 23 14 24 9 24 21 14 16 44 20 15 23 33 35 47 50 57 56 74 72 73 69 68 71 63 54 41 32 35 40 57 72 79 73 50 39 39 22 14 11 10 10 11 9
8 28 25 21 19 25 9 8 8 29 20 15 25 30 25 18 16 28 33 36 43 48 59 73 75 74 72 70 70 71 62 41 34 38 41 52 62 75 78 59 43 37 26 18 12 10 10 10 11
34 24 22 17 17 29 25 8 8 31 36 34 16 30 35 20 20 19 29 35 35 40 48 63 67 66 64 64 68 72 69 57 45 36 42 50 63 72 78 71 51 39 30 22 14 10 11 11 12
15 29 23 23 19 22 21 9 8 9 28 11 19 33 40 11 22 28 24 26 31 40 53 53 59 63 63 66 65 71 69 65 65 50 44 50 58 62 74 76 63 48 36 26 18 12 11 13 15
10 29 24 20 22 26 18 11 10 9 9 10 13 16 15 18 16 19 30 34 37 47 49 62 60 57 51 61 63 70 74 72 64 64 56 53 56 61 66 76 75 60 46 33 25 15 12 14 17
9 27 23 25 25 24 12 10 11 10 10 9 9 10 12 14 15 18 24 32 50 60 68 62 61 62 59 48 49 66 73 74 73 66 65 58 52 55 64 78 81 73 60 44 31 22 13 14 17
10 33 27 17 12 13 15 15 14 14 14 13 13 12 10 9 9 10 21 27 32 47 60 74 67 64 50 52 62 69 76 75 68 77 75 65 62 63 67 75 79 78 73 61 42 28 18 14 17
16 12 16 15 15 16 17 17 16 16 16 18 16 16 15 15 14 11 10 15 22 30 41 48 56 57 46 48 68 73 77 80 74 72 76 81 66 64 71 75 70 71 80 70 62 37 24 16 16
15 15 15 18 21 22 21 20 20 19 18 18 17 17 18 18 17 17 16 13 12 12 24 38 45 46 47 50 62 71 73 78 81 79 77 74 78 79 72 77 65 59 73 73 70 58 32 21 16
21 23 26 27 28 28 29 28 29 22 20 19 18 18 18 18 20 20 18 18 17 14 12 17 29 33 44 44 50 62 70 77 80 81 81 77 75 81 78 74 67 57 56 64 69 72 52 28 19
32 34 33 33 32 30 28 24 25 26 23 22 23 23 21 19 18 18 21 22 19 18 18 14 14 17 24 40 44 47 58 69 76 71 79 83 80 80 82 81 71 64 57 54 57 63 70 44 26
38 38 46 45 34 32 29 24 28 27 23 21 22 23 25 24 20 20 20 20 22 22 18 17 16 14 14 16 29 40 43 48 51 60 77 86 85 84 84 85 83 71 62 56 49 53 66 67 38
38 50 44 36 27 24 21 20 24 21 18 16 17 19 22 24 24 24 22 22 20 22 22 21 17 15 14 13 13 18 29 40 43 47 69 77 83 84 86 84 83 89 77 60 52 48 52 74 63
57 41 39 34 36 24 21 14 14 15 13 14 14 14 15 16 16 18 21 22 23 23 22 22 22 20 17 14 13 13 14 23 36 42 48 70 78 82 86 86 86 87 86 76 60 49 48 64 79
14 17 48 47 53 42 23 22 31 21 18 23 23 16 18 20 34 21 18 14 15 18 23 21 22 23 22 20 16 12 12 12 16 30 40 45 60 69 72 75 84 89 84 75 74 58 47 56 77
28 41 56 55 54 55 44 22 17 29 29 28 33 35 48 66 48 47 41 33 19 14 17 21 22 22 23 23 21 20 16 12 11 15 26 48 61 62 66 67 73 90 91 85 80 75 60 51 64
55 54 72 72 78 56 83 55 50 39 41 42 45 50 54 68 48 44 41 39 31 17 14 14 17 19 20 21 22 21 19 18 16 13 13 17 36 54 62 64 72 77 91 89 85 83 79 65 58
45 58 59 68 98 89 94 77 55 58 61 46 50 82 88 50 48 45 40 35 34 29 19 12 10 10 11 13 17 18 17 17 17 17 15 14 18 33 54 60 68 71 82 93 94 90 80 83 71
72 66 73 100 100 100 85 98 72 54 60 63 81 92 54 50 54 51 45 39 33 30 27 24 19 16 10 10 9 10 9 9 10 11 13 13 14 24 36 51 59 66 67 94 100 95 91 85 85
79 80 97 100 99 97 80 93 70 72 69 71 81 54 52 62 68 67 63 56 41 33 27 24 22 23 22 16 14 15 15 12 8 7 7 8 11 13 24 37 49 56 61 70 84 82 87 96 95
83 94 88 94 96 75 72 88 69 72 68 94 73 65 70 73 78 69 62 59 55 50 43 31 28 27 29 28 24 20 20 22 22 14 10 9 8 9 11 24 37 51 61 62 66 77 81 96 97
90 92 97 85 78 63 86 81 81 67 72 82 86 84 89 83 75 82 75 66 56 52 47 40 32 34 35 33 30 29 31 30 32 31 21 14 11 9 10 29 31 40 48 61 71 74 85 96 98
98 94 97 97 81 85 61 74 70 76 72 86 93 94 93 83 82 86 86 72 66 54 49 44 39 35 32 26 25 25 26 27 26 30 23 14 15 12 11 9 36 52 67 61 74 81 78 85 72
96 96 96 98 89 74 60 81 83 73 91 93 96 100 100 89 86 85 94 89 70 59 39 38 38 31 25 22 20 18 17 17 18 20 18 21 24 18 13 11 12 48 68 68 70 76 79 77 78
99 97 97 95 89 90 76 71 82 96 96 94 97 98 98 97 96 98 97 92 88 69 61 51 33 27 26 27 28 33 36 38 39 36 31 34 36 27 24 15 19 14 50 65 58 63 72 76 77
85 94 93 98 97 98 98 80 94 97 97 97 98 98 99 99 99 99 99 98 98 97 85 62 56 51 52 54 52 49 47 55 54 49 48 49 44 28 25 20 17 17 26 78 72 71 67 69 71